CW1648 Weather Reports


time (UTC)temp
F
wind
direction
speed
knots
gust
knots
rain 1hr
in
rain 24hr
in
rain mn
in
humidity
%
barometer
mb
20260906224234 78 291 0.0 0.0 0.00 0.00 0.00 55 1012.8
20260906224229 78 290 0.0 0.0 0.00 0.00 0.00 56 1012.8
20260906224033 78 291 0.0 0.0 0.00 0.00 0.00 56 1012.9
20260906224028 78 291 0.0 0.0 0.00 0.00 0.00 56 1012.7
20260906223818 78 290 0.0 0.0 0.00 0.00 0.00 56 1012.8
20260906223730 78 290 0.0 0.0 0.00 0.00 0.00 56 1012.8
20260906223724 78 290 0.0 0.0 0.00 0.00 0.00 55 1012.9
20260906223528 78 298 0.0 0.0 0.00 0.00 0.00 56 1012.7
20260906223515 78 292 0.0 0.0 0.00 0.00 0.00 55 1012.9
20260906223429 78 278 0.0 0.0 0.00 0.00 0.00 56 1012.9
20260906223421 78 11 0.0 0.0 0.00 0.00 0.00 56 1012.9
20260906223213 78 10 0.0 0.0 0.00 0.00 0.00 55 1012.9
20260906223111 78 10 0.0 0.0 0.00 0.00 0.00 55 1012.9
20260906223029 79 10 0.0 0.0 0.00 0.00 0.00 55 1012.7
20260906223011 78 10 0.0 0.0 0.00 0.00 0.00 55 1012.9
20260906222911 78 10 0.0 0.0 0.00 0.00 0.00 55 1012.9
20260906222810 78 10 0.0 0.0 0.00 0.00 0.00 55 1012.9
20260906222710 78 10 0.0 0.0 0.00 0.00 0.00 55 1012.9
20260906222610 78 10 0.0 0.0 0.00 0.00 0.00 54 1012.9
20260906222528 79 10 0.0 0.0 0.00 0.00 0.00 55 1012.7
20260906222509 79 10 0.0 0.0 0.00 0.00 0.00 55 1012.9
20260906222408 79 10 0.0 0.0 0.00 0.00 0.00 55 1012.9
20260906222318 79 10 0.0 0.0 0.00 0.00 0.00 55 1012.9
20260906222307 79 10 0.0 0.0 0.00 0.00 0.00 56 1012.9
20260906222207 79 10 0.0 0.0 0.00 0.00 0.00 56 1012.9
20260906222128 79 10 0.0 0.0 0.00 0.00 0.00 55 1012.8
20260906222028 79 67 0.0 0.0 0.00 0.00 0.00 56 1012.7
20260906222015 79 67 0.0 0.0 0.00 0.00 0.00 56 1012.9
20260906221816 79 67 0.0 0.0 0.00 0.00 0.00 55 1012.9
20260906221805 79 67 0.0 0.0 0.00 0.00 0.00 55 1012.8
20260906221705 79 67 0.0 0.0 0.00 0.00 0.00 56 1012.8
20260906221604 79 67 0.0 0.0 0.00 0.00 0.00 55 1012.7
20260906221537 79 306 0.0 0.0 0.00 0.00 0.00 54 1012.8
20260906221528 79 71 0.0 0.0 0.00 0.00 0.00 55 1012.6
20260906221504 79 71 0.0 0.0 0.00 0.00 0.00 55 1012.8
20260906221424 79 306 0.0 0.0 0.00 0.00 0.00 54 1012.8
20260906221304 79 306 0.0 0.0 0.00 0.00 0.00 54 1012.7
20260906221202 79 306 0.0 0.0 0.00 0.00 0.00 55 1012.8
20260906221103 79 306 0.0 0.0 0.00 0.00 0.00 54 1012.8
20260906221028 79 306 0.0 0.0 0.00 0.00 0.00 54 1012.5
20260906221003 79 306 0.0 0.0 0.00 0.00 0.00 54 1012.7
20260906220902 79 306 0.0 0.0 0.00 0.00 0.00 53 1012.8
20260906220816 79 306 0.0 0.0 0.00 0.00 0.00 54 1012.8
20260906220802 79 306 0.0 0.0 0.00 0.00 0.00 54 1012.8
20260906220659 79 306 0.0 0.0 0.00 0.00 0.00 54 1012.8
20260906220559 80 306 0.0 0.0 0.00 0.00 0.00 53 1012.8
20260906220529 80 306 0.0 0.0 0.00 0.00 0.00 53 1012.5
20260906220459 80 306 0.0 0.0 0.00 0.00 0.00 53 1012.7
20260906220357 80 325 0.0 0.0 0.00 0.00 0.00 52 1012.7
20260906220314 80 325 0.0 0.0 0.00 0.00 0.00 52 1012.7
20260906220257 80 325 0.0 0.0 0.00 0.00 0.00 52 1012.6
20260906220157 80 325 0.0 0.0 0.00 0.00 0.00 52 1012.6
20260906220056 80 325 0.0 0.0 0.00 0.00 0.00 52 1012.6
20260906220028 80 325 0.0 0.0 0.00 0.00 0.00 52 1012.4
20260906215955 80 325 0.0 0.0 0.00 0.00 0.00 52 1012.6
20260906215936 80 274 0.0 0.0 0.00 0.00 0.00 50 1012.6
20260906215930 80 325 0.0 0.0 0.00 0.00 0.00 52 1012.6
20260906215818 80 325 0.0 0.0 0.00 0.00 0.00 51 1012.6
20260906215811 80 325 0.0 0.0 0.00 0.00 0.00 51 1012.6
20260906215543 81 229 0.0 0.0 0.00 0.00 0.00 51 1012.5
20260906215452 80 229 0.0 0.0 0.00 0.00 0.00 51 1012.6
20260906215423 80 282 0.0 0.0 0.00 0.00 0.00 50 1012.5
20260906215419 80 287 0.0 0.0 0.00 0.00 0.00 51 1012.5
20260906215413 80 229 0.0 0.0 0.00 0.00 0.00 50 1012.5
20260906215406 80 261 0.0 0.0 0.00 0.00 0.00 50 1012.5
20260906215049 80 292 0.0 0.0 0.00 0.00 0.00 53 1012.5
20260906215028 81 294 0.0 0.0 0.00 0.00 0.00 52 1012.4
20260906214949 80 294 0.0 0.0 0.00 0.00 0.00 52 1012.5
20260906214848 80 309 0.0 0.0 0.00 0.00 0.00 51 1012.5
20260906214811 80 309 0.0 0.0 0.00 0.00 0.00 50 1012.5
20260906214748 80 309 0.0 0.0 0.00 0.00 0.00 50 1012.4
20260906214648 80 267 0.0 0.0 0.00 0.00 0.00 50 1012.5
20260906214547 80 254 0.0 0.0 0.00 0.00 0.00 51 1012.4
20260906214543 80 273 0.0 0.0 0.00 0.00 0.00 51 1012.3
20260906214447 80 273 0.0 0.0 0.00 0.00 0.00 51 1012.5
20260906214347 80 272 0.0 0.0 0.00 0.00 0.00 51 1012.4
20260906214309 80 271 0.0 0.0 0.00 0.00 0.00 51 1012.4
20260906214246 80 271 0.0 0.0 0.00 0.00 0.00 51 1012.4
20260906214146 80 304 0.0 0.0 0.00 0.00 0.00 51 1012.4
20260906214045 80 304 0.0 0.0 0.00 0.00 0.00 50 1012.4
20260906214028 80 311 0.0 0.0 0.00 0.00 0.00 49 1012.2
20260906213958 80 297 0.0 0.0 0.00 0.00 0.00 50 1012.4
20260906213953 80 311 0.0 0.0 0.00 0.00 0.00 49 1012.4
20260906213809 80 277 0.0 0.0 0.00 0.00 0.00 50 1012.4
20260906213743 80 276 0.0 0.0 0.00 0.00 0.00 50 1012.3
20260906213657 80 284 0.0 0.0 0.00 0.00 0.00 50 1012.3
20260906213652 80 277 0.0 0.0 0.00 0.00 0.00 50 1012.3
20260906213528 80 275 0.0 0.0 0.00 0.00 0.00 51 1012.1
20260906213523 80 251 0.0 0.0 0.00 0.00 0.00 51 1012.3
20260906213411 80 206 0.0 0.0 0.00 0.00 0.00 51 1012.3
20260906213405 80 301 0.0 0.0 0.00 0.00 0.00 51 1012.3
20260906213357 80 301 0.0 0.0 0.00 0.00 0.00 52 1012.3
20260906213041 80 273 0.0 0.0 0.00 0.00 0.00 52 1012.3
20260906213028 80 25 0.0 0.0 0.00 0.00 0.00 50 1012.0
20260906212941 80 25 0.0 0.0 0.00 0.00 0.00 50 1012.2
20260906212842 80 25 0.0 0.0 0.00 0.00 0.00 50 1012.3
20260906212809 80 25 0.0 0.0 0.00 0.00 0.00 50 1012.3
20260906212752 80 298 0.0 0.0 0.00 0.00 0.00 51 1012.4
20260906212747 80 298 0.0 0.0 0.00 0.00 0.00 50 1012.3
20260906212543 80 277 0.0 0.0 0.00 0.00 0.00 51 1012.2
20260906212537 80 277 0.0 0.0 0.00 0.00 0.00 52 1012.4
20260906212437 80 277 0.0 0.0 0.00 0.00 0.00 51 1012.4
20260906212337 80 279 0.0 0.0 0.00 0.00 0.00 53 1012.4
20260906212309 80 279 0.0 0.0 0.00 0.00 0.00 51 1012.4
20260906212236 80 279 0.0 0.0 0.00 0.00 0.00 51 1012.4
20260906212136 80 279 0.0 0.0 0.00 0.00 0.00 52 1012.4
20260906212036 80 279 0.0 0.0 0.00 0.00 0.00 53 1012.4
20260906212028 81 279 0.0 0.0 0.00 0.00 0.00 53 1012.3
20260906211934 80 279 0.0 0.0 0.00 0.00 0.00 53 1012.4
20260906211835 80 279 0.0 0.0 0.00 0.00 0.00 52 1012.4
20260906211807 80 279 0.0 0.0 0.00 0.00 0.00 51 1012.4
20260906211733 80 282 0.0 0.0 0.00 0.00 0.00 51 1012.4
20260906211632 80 246 0.0 0.0 0.00 0.00 0.00 51 1012.4
20260906211558 80 246 0.0 0.0 0.00 0.00 0.00 52 1012.2
20260906211532 80 246 0.0 0.0 0.00 0.00 0.00 52 1012.4
20260906211432 80 246 0.0 0.0 0.00 0.00 0.00 52 1012.4
20260906211350 80 280 0.0 0.0 0.00 0.00 0.00 52 1012.4
20260906211344 80 246 0.0 0.0 0.00 0.00 0.00 52 1012.3
20260906211338 80 271 0.0 0.0 0.00 0.00 0.00 52 1012.4
20260906211129 80 283 0.0 0.0 0.00 0.00 0.00 52 1012.4
20260906211029 80 287 0.0 0.0 0.00 0.00 0.00 52 1012.3
20260906210929 80 260 0.0 0.0 0.00 0.00 0.00 52 1012.3
20260906210827 80 271 0.0 0.0 0.00 0.00 0.00 52 1012.3
20260906210805 80 271 0.0 0.0 0.00 0.00 0.00 52 1012.3
20260906210727 80 277 0.0 0.0 0.00 0.00 0.00 53 1012.3
20260906210640 79 286 0.0 0.0 0.00 0.00 0.00 54 1012.3
20260906210634 79 286 0.0 0.0 0.00 0.00 0.00 53 1012.3
20260906210528 79 286 0.0 0.0 0.00 0.00 0.00 54 1012.1
20260906210439 79 286 0.0 0.0 0.00 0.00 0.00 54 1012.3
20260906210433 79 286 0.0 0.0 0.00 0.00 0.00 54 1012.3
20260906210305 79 286 0.0 0.0 0.00 0.00 0.00 54 1012.3
20260906210224 79 286 0.0 0.0 0.00 0.00 0.00 54 1012.3
20260906210123 79 286 0.0 0.0 0.00 0.00 0.00 54 1012.3
20260906210028 79 289 0.0 0.0 0.00 0.00 0.00 53 1012.1
20260906210023 79 289 0.0 0.0 0.00 0.00 0.00 54 1012.3
20260906205923 79 289 0.0 0.0 0.00 0.00 0.00 53 1012.3
20260906205805 80 289 0.0 0.0 0.00 0.00 0.00 53 1012.3
20260906205721 80 289 0.0 0.0 0.00 0.00 0.00 54 1012.3
20260906205620 80 289 0.0 0.0 0.00 0.00 0.00 54 1012.3
20260906205528 80 289 0.0 0.0 0.00 0.00 0.00 53 1012.2
20260906205519 80 289 0.0 0.0 0.00 0.00 0.00 52 1012.3
20260906205419 80 288 0.0 0.0 0.00 0.00 0.00 54 1012.3
20260906205306 80 285 0.0 0.0 0.00 0.00 0.00 54 1012.3
20260906205218 80 285 0.0 0.0 0.00 0.00 0.00 54 1012.3
20260906205118 81 306 0.0 0.0 0.00 0.00 0.00 53 1012.2
20260906205028 81 16 0.0 0.0 0.00 0.00 0.00 51 1012.1
20260906205017 81 16 0.0 0.0 0.00 0.00 0.00 52 1012.3
20260906204917 81 16 0.0 0.0 0.00 0.00 0.00 51 1012.2
20260906204805 80 263 0.0 0.0 0.00 0.00 0.00 51 1012.2
20260906204716 80 262 0.0 0.0 0.00 0.00 0.00 51 1012.2
20260906204616 80 262 0.0 0.0 0.00 0.00 0.00 51 1012.2
20260906204543 80 263 0.0 0.0 0.00 0.00 0.00 51 1012.1
20260906204539 80 263 0.0 0.0 0.00 0.00 0.00 52 1012.2
20260906204535 80 263 0.0 0.0 0.00 0.00 0.00 52 1012.2
20260906204530 80 262 0.0 0.0 0.00 0.00 0.00 51 1012.2
20260906204411 80 263 0.0 0.0 0.00 0.00 0.00 52 1012.2
20260906204215 80 263 0.0 0.0 0.00 0.00 0.00 52 1012.2
20260906204113 80 263 0.0 0.0 0.00 0.00 0.00 52 1012.3
20260906204029 80 261 0.0 0.0 0.00 0.00 0.00 51 1012.2
20260906204024 80 261 0.0 0.0 0.00 0.00 0.00 54 1012.3
20260906204014 80 261 0.0 0.0 0.00 0.00 0.00 51 1012.3
20260906203921 80 261 0.0 0.0 0.00 0.00 0.00 51 1012.3
20260906203912 80 261 0.0 0.0 0.00 0.00 0.00 54 1012.3
20260906203712 80 261 0.0 0.0 0.00 0.00 0.00 55 1012.3
20260906203612 80 261 0.0 0.0 0.00 0.00 0.00 53 1012.3
20260906203528 80 261 0.0 0.0 0.00 0.00 0.00 52 1012.1
20260906203509 80 261 0.0 0.0 0.00 0.00 0.00 52 1012.3
20260906203436 80 261 0.0 0.0 0.00 0.00 0.00 52 1012.2
20260906203316 80 261 0.0 0.0 0.00 0.00 0.00 52 1012.3
20260906203107 80 281 0.0 0.0 0.00 0.00 0.00 52 1012.2
20260906203028 80 283 0.0 0.0 0.00 0.00 0.00 52 1012.2
20260906203007 80 283 0.0 0.0 0.00 0.00 0.00 52 1012.3
20260906202906 80 283 0.0 0.0 0.00 0.00 0.00 53 1012.3
20260906202807 80 281 0.0 0.0 0.00 0.00 0.00 52 1012.2
20260906202719 80 281 0.0 0.0 0.00 0.00 0.00 52 1012.3
20260906202713 80 281 0.0 0.0 0.00 0.00 0.00 53 1012.2
20260906202528 80 281 0.0 0.0 0.00 0.00 0.00 51 1012.1
20260906202518 80 281 0.0 0.0 0.00 0.00 0.00 52 1012.3
20260906202512 80 281 0.0 0.0 0.00 0.00 0.00 51 1012.2
20260906202306 80 281 0.0 0.0 0.00 0.00 0.00 49 1012.3
20260906202204 80 281 0.0 0.0 0.00 0.00 0.00 50 1012.3
20260906202102 80 259 0.0 0.0 0.00 0.00 0.00 53 1012.2
20260906202028 80 259 0.0 0.0 0.00 0.00 0.00 52 1012.2
20260906202002 80 259 0.0 0.0 0.00 0.00 0.00 52 1012.3
20260906201921 80 306 0.0 0.0 0.00 0.00 0.00 52 1012.3
20260906201915 80 15 0.0 0.0 0.00 0.00 0.00 52 1012.3
20260906201906 80 306 0.0 0.0 0.00 0.00 0.00 52 1012.3
20260906201700 80 308 0.0 0.0 0.00 0.00 0.00 53 1012.2
20260906201619 80 331 0.0 0.0 0.00 0.00 0.00 55 1012.2
20260906201615 80 211 0.0 0.0 0.00 0.00 0.00 55 1012.3
20260906201610 80 311 0.0 0.0 0.00 0.00 0.00 54 1012.3
20260906201528 80 331 0.0 0.0 0.00 0.00 0.00 53 1012.1
20260906201414 80 211 0.0 0.0 0.00 0.00 0.00 54 1012.3
20260906201300 80 242 0.0 0.0 0.00 0.00 0.00 55 1012.3
20260906201159 80 257 0.0 0.0 0.00 0.00 0.00 53 1012.3
20260906201059 80 246 0.0 0.0 0.00 0.00 0.00 53 1012.3
20260906201028 80 222 0.0 0.0 0.00 0.00 0.00 53 1012.2
20260906200958 80 217 0.0 0.0 0.00 0.00 0.00 53 1012.3
20260906200858 80 257 0.0 0.0 0.00 0.00 0.00 54 1012.3
20260906200755 80 289 0.0 0.0 0.00 0.00 0.00 53 1012.3
20260906200655 80 289 0.0 0.0 0.00 0.00 0.00 53 1012.3
20260906200609 80 289 0.0 0.0 0.00 0.00 0.00 52 1012.3
20260906200604 80 289 0.0 0.0 0.00 0.00 0.00 52 1012.3
20260906200528 80 289 0.0 0.0 0.00 0.00 0.00 52 1012.2
20260906200354 80 289 0.0 0.0 0.00 0.00 0.00 52 1012.3
20260906200254 80 288 0.0 0.0 0.00 0.00 0.00 53 1012.3
20260906200153 80 292 0.0 0.0 0.00 0.00 0.00 53 1012.4
20260906200105 79 301 0.0 0.0 0.00 0.00 0.00 53 1012.4
20260906200059 79 300 0.0 0.0 0.00 0.00 0.00 53 1012.3
20260906200028 79 301 0.0 0.0 0.00 0.00 0.00 53 1012.2
20260906195851 79 301 0.0 0.0 0.00 0.00 0.00 54 1012.3
20260906195749 79 301 0.0 0.0 0.00 0.00 0.00 55 1012.4
20260906195650 79 302 0.0 0.0 0.00 0.00 0.00 55 1012.4
20260906195549 79 302 0.0 0.0 0.00 0.00 0.00 54 1012.4
20260906195528 79 302 0.0 0.0 0.00 0.00 0.00 54 1012.2
20260906195503 79 304 0.0 0.0 0.00 0.00 0.00 55 1012.5
20260906195458 79 302 0.0 0.0 0.00 0.00 0.00 54 1012.4
20260906195248 79 304 0.0 0.0 0.00 0.00 0.00 54 1012.4
20260906195202 79 240 0.0 0.0 0.00 0.00 0.00 55 1012.4
20260906195157 79 292 0.0 0.0 0.00 0.00 0.00 55 1012.5
20260906195028 79 240 0.0 0.0 0.00 0.00 0.00 54 1012.3
20260906194945 79 240 0.0 0.0 0.00 0.00 0.00 54 1012.5
20260906194843 78 248 0.0 0.0 0.00 0.00 0.00 56 1012.5
20260906194804 78 248 0.0 0.0 0.00 0.00 0.00 56 1012.5
20260906194800 78 248 0.0 0.0 0.00 0.00 0.00 56 1012.5
20260906194753 78 249 0.0 0.0 0.00 0.00 0.00 56 1012.5
20260906194544 78 248 0.0 0.0 0.00 0.00 0.00 57 1012.5
20260906194528 78 248 0.0 0.0 0.00 0.00 0.00 58 1012.3
20260906194442 78 249 0.0 0.0 0.00 0.00 0.00 58 1012.4
20260906194343 78 247 0.0 0.0 0.00 0.00 0.00 57 1012.3
20260906194254 77 252 0.0 0.0 0.00 0.00 0.00 58 1012.3
20260906194240 77 249 0.0 0.0 0.00 0.00 0.00 58 1012.3
20260906194140 77 247 0.0 0.0 0.00 0.00 0.00 62 1012.4
20260906194040 77 310 0.0 0.0 0.00 0.00 0.00 62 1012.4
20260906194028 77 310 0.0 0.0 0.00 0.00 0.00 62 1012.3
20260906193939 77 310 0.0 0.0 0.00 0.00 0.00 61 1012.4
20260906193839 77 310 0.0 0.0 0.00 0.00 0.00 62 1012.4
20260906193753 76 314 0.0 0.0 0.00 0.00 0.00 62 1012.5
20260906193739 76 290 0.0 0.0 0.00 0.00 0.00 62 1012.5
20260906193638 76 320 0.0 0.0 0.00 0.00 0.00 63 1012.4
20260906193538 76 315 0.0 0.0 0.00 0.00 0.00 63 1012.4
20260906193529 76 315 0.0 0.0 0.00 0.00 0.00 63 1012.3
20260906193437 76 315 0.0 0.0 0.00 0.00 0.00 63 1012.4
20260906193418 76 315 0.0 0.0 0.00 0.00 0.00 63 1012.4
20260906193306 76 319 0.0 0.0 0.00 0.00 0.00 62 1012.4
20260906193302 76 319 0.0 0.0 0.00 0.00 0.00 62 1012.4
20260906193255 76 322 0.0 0.0 0.00 0.00 0.00 62 1012.4
20260906193028 76 319 0.0 0.0 0.00 0.00 0.00 62 1012.3
20260906192936 76 319 0.0 0.0 0.00 0.00 0.00 62 1012.4
20260906192836 76 319 0.0 0.0 0.00 0.00 0.00 62 1012.4
20260906192735 76 319 0.0 0.0 0.00 0.00 0.00 61 1012.4
20260906192649 76 319 0.0 0.0 0.00 0.00 0.00 62 1012.4
20260906192644 76 319 0.0 0.0 0.00 0.00 0.00 61 1012.4
20260906192543 76 85 0.0 0.0 0.00 0.00 0.00 61 1012.3
20260906192448 76 86 0.0 0.0 0.00 0.00 0.00 60 1012.4
20260906192443 76 85 0.0 0.0 0.00 0.00 0.00 61 1012.4
20260906192233 76 85 0.0 0.0 0.00 0.00 0.00 62 1012.3
20260906192131 76 85 0.0 0.0 0.00 0.00 0.00 61 1012.3
20260906192030 76 85 0.0 0.0 0.00 0.00 0.00 60 1012.3
20260906192028 76 85 0.0 0.0 0.00 0.00 0.00 59 1012.2
20260906191930 76 85 0.0 0.0 0.00 0.00 0.00 60 1012.3
20260906191830 76 85 0.0 0.0 0.00 0.00 0.00 61 1012.3
20260906191751 76 85 0.0 0.0 0.00 0.00 0.00 61 1012.3
20260906191729 76 85 0.0 0.0 0.00 0.00 0.00 60 1012.3
20260906191629 76 85 0.0 0.0 0.00 0.00 0.00 59 1012.3
20260906191529 76 85 0.0 0.0 0.00 0.00 0.00 59 1012.3
20260906191427 76 85 0.0 0.0 0.00 0.00 0.00 59 1012.3
20260906191327 76 85 0.0 0.0 0.00 0.00 0.00 59 1012.3
20260906191228 76 85 0.0 0.0 0.00 0.00 0.00 59 1012.3
20260906191125 77 85 0.0 0.0 0.00 0.00 0.00 58 1012.3
20260906191029 77 85 0.0 0.0 0.00 0.00 0.00 58 1012.2
20260906191025 77 85 0.0 0.0 0.00 0.00 0.00 58 1012.3
20260906190938 77 85 0.0 0.0 0.00 0.00 0.00 57 1012.3
20260906190933 77 85 0.0 0.0 0.00 0.00 0.00 58 1012.3
20260906190749 77 85 0.0 0.0 0.00 0.00 0.00 57 1012.3
20260906190723 77 84 0.0 0.0 0.00 0.00 0.00 58 1012.3
20260906190637 77 86 0.0 0.0 0.00 0.00 0.00 58 1012.4
20260906190632 77 88 0.0 0.0 0.00 0.00 0.00 57 1012.4
20260906190528 77 78 0.0 0.0 0.00 0.00 0.00 58 1012.2
20260906190423 78 88 0.0 0.0 0.00 0.00 0.00 57 1012.3
20260906190322 78 94 0.0 0.0 0.00 0.00 0.00 57 1012.3
20260906190248 78 87 0.0 0.0 0.00 0.00 0.00 56 1012.3
20260906190222 78 61 0.0 0.0 0.00 0.00 0.00 57 1012.3
20260906190121 78 102 0.0 0.0 0.00 0.00 0.00 58 1012.4
20260906190028 78 51 0.0 0.0 0.00 0.00 0.00 58 1012.2
20260906190021 78 51 0.0 0.0 0.00 0.00 0.00 58 1012.4
20260906185921 78 48 0.0 0.0 0.00 0.00 0.00 57 1012.4
20260906185819 78 52 0.0 0.0 0.00 0.00 0.00 57 1012.3
20260906185808 78 52 0.0 0.0 0.00 0.00 0.00 57 1012.4
20260906185801 78 51 0.0 0.0 0.00 0.00 0.00 59 1012.4
20260906185648 78 51 0.0 0.0 0.00 0.00 0.00 59 1012.4
20260906185535 78 51 0.0 0.0 0.00 0.00 0.00 59 1012.4
20260906185528 78 50 0.0 0.0 0.00 0.00 0.00 59 1012.2
20260906185246 78 42 0.0 0.0 0.00 0.00 0.00 59 1012.4
20260906185216 78 42 0.0 0.0 0.00 0.00 0.00 59 1012.4
20260906185116 78 53 0.0 0.0 0.00 0.00 0.00 59 1012.4
20260906185029 78 51 0.0 0.0 0.00 0.00 0.00 58 1012.2
20260906185015 78 51 0.0 0.0 0.00 0.00 0.00 58 1012.4
20260906184915 78 52 0.0 0.0 0.00 0.00 0.00 58 1012.4
20260906184834 78 51 0.0 0.0 0.00 0.00 0.00 56 1012.3
20260906184829 78 52 0.0 0.0 0.00 0.00 0.00 57 1012.4
20260906184822 78 53 0.0 0.0 0.00 0.00 0.00 56 1012.3
20260906184636 78 48 0.0 0.0 0.00 0.00 0.00 58 1012.3
20260906184528 79 67 0.0 0.0 0.00 0.00 0.00 57 1012.2
20260906184523 79 70 0.0 0.0 0.00 0.00 0.00 57 1012.4
20260906184359 78 65 0.0 0.0 0.00 0.00 0.00 57 1012.3
20260906184354 78 86 0.0 0.0 0.00 0.00 0.00 58 1012.3
20260906184350 78 283 0.0 0.0 0.00 0.00 0.00 59 1012.3
20260906184344 78 92 0.0 0.0 0.00 0.00 0.00 59 1012.3
20260906184337 78 65 0.0 0.0 0.00 0.00 0.00 57 1012.3
20260906184028 78 283 0.0 0.0 0.00 0.00 0.00 59 1012.1
20260906183924 78 283 0.0 0.0 0.00 0.00 0.00 58 1012.3
20260906183919 78 283 0.0 0.0 0.00 0.00 0.00 58 1012.3
20260906183743 78 283 0.0 0.0 0.00 0.00 0.00 58 1012.3
20260906183709 78 284 0.0 0.0 0.00 0.00 0.00 57 1012.3
20260906183610 78 230 0.0 0.0 0.00 0.00 0.00 56 1012.3
20260906183536 78 239 0.0 0.0 0.00 0.00 0.00 57 1012.2
20260906183532 78 240 0.0 0.0 0.00 0.00 0.00 54 1012.2
20260906183528 78 229 0.0 0.0 0.00 0.00 0.00 55 1012.0
20260906183244 78 240 0.0 0.0 0.00 0.00 0.00 54 1012.2
20260906183207 78 240 0.0 0.0 0.00 0.00 0.00 54 1012.2
20260906183121 77 202 0.0 0.0 0.00 0.00 0.00 53 1012.2
20260906183115 77 199 0.0 0.0 0.00 0.00 0.00 53 1012.2
20260906183058 77 203 0.0 0.0 0.00 0.00 0.00 53 1012.2
20260906182919 77 330 0.0 0.0 0.00 0.00 0.00 54 1012.3
20260906182914 77 341 0.0 0.0 0.00 0.00 0.00 55 1012.3
20260906182742 77 339 0.0 0.0 0.00 0.00 0.00 54 1012.3
20260906182704 77 342 0.0 0.0 0.00 0.00 0.00 54 1012.3
20260906182604 77 294 0.0 0.0 0.00 0.00 0.00 57 1012.3
20260906182528 77 294 0.0 0.0 0.00 0.00 0.00 60 1012.2
20260906182502 77 294 0.0 0.0 0.00 0.00 0.00 60 1012.3
20260906182402 77 296 0.0 0.0 0.00 0.00 0.00 59 1012.3
20260906182322 77 298 0.0 0.0 0.00 0.00 0.00 59 1012.4
20260906182317 77 298 0.0 0.0 0.00 0.00 0.00 58 1012.4
20260906182310 77 297 0.0 0.0 0.00 0.00 0.00 58 1012.4
20260906182102 77 303 0.0 0.0 0.00 0.00 0.00 59 1012.5
20260906182028 77 303 0.0 0.0 0.00 0.00 0.00 60 1012.4
20260906182001 77 303 0.0 0.0 0.00 0.00 0.00 60 1012.5
20260906181901 77 303 0.0 0.0 0.00 0.00 0.00 60 1012.5
20260906181740 77 303 0.0 0.0 0.00 0.00 0.00 59 1012.6
20260906181700 77 303 0.0 0.0 0.00 0.00 0.00 59 1012.6
20260906181600 77 303 0.0 0.0 0.00 0.00 0.00 58 1012.6
20260906181528 77 303 0.0 0.0 0.00 0.00 0.00 58 1012.5
20260906181511 77 314 0.0 0.0 0.00 0.00 0.00 61 1012.7
20260906181500 77 303 0.0 0.0 0.00 0.00 0.00 58 1012.6
20260906181359 77 313 0.0 0.0 0.00 0.00 0.00 59 1012.7
20260906181347 77 314 0.0 0.0 0.00 0.00 0.00 59 1012.7
20260906181159 77 316 0.0 0.0 0.00 0.00 0.00 59 1012.7
20260906181059 77 316 0.0 0.0 0.00 0.00 0.00 61 1012.7
20260906180957 77 58 0.0 0.0 0.00 0.00 0.00 62 1012.6
20260906180857 77 59 0.0 0.0 0.00 0.00 0.00 64 1012.7
20260906180757 76 59 0.0 0.0 0.00 0.00 0.00 63 1012.6
20260906180739 76 59 0.0 0.0 0.00 0.00 0.00 61 1012.6
20260906180654 76 59 0.0 0.0 0.00 0.00 0.00 60 1012.7
20260906180628 76 265 0.0 0.0 0.00 0.00 0.00 63 1012.6
20260906180553 76 59 0.0 0.0 0.00 0.00 0.00 63 1012.7
20260906180452 76 265 0.0 0.0 0.00 0.00 0.00 63 1012.7
20260906180350 76 264 0.0 0.0 0.00 0.00 0.00 63 1012.8
20260906180239 76 265 0.0 0.0 0.00 0.00 0.00 62 1012.7
20260906180214 76 264 0.0 0.0 0.00 0.00 0.00 60 1012.7
20260906180209 76 264 0.0 0.0 0.00 0.00 0.00 61 1012.6
20260906180205 76 264 0.0 0.0 0.00 0.00 0.00 61 1012.7
20260906180028 76 264 0.0 0.0 0.00 0.00 0.00 61 1012.5
20260906175846 76 264 0.0 0.0 0.00 0.00 0.00 59 1012.6
20260906175740 76 263 0.0 0.0 0.00 0.00 0.00 59 1012.6
20260906175658 76 67 0.0 0.0 0.00 0.00 0.00 59 1012.6
20260906175654 76 262 0.0 0.0 0.00 0.00 0.00 58 1012.6
20260906175528 76 86 0.0 0.0 0.00 0.00 0.00 59 1012.6
20260906175509 76 86 0.0 0.0 0.00 0.00 0.00 60 1012.7
20260906175356 76 351 0.0 0.0 0.00 0.00 0.00 60 1012.6
20260906175240 77 321 0.0 0.0 0.00 0.00 0.00 61 1012.6
20260906175144 77 32 0.0 0.0 0.00 0.00 0.00 59 1012.6
20260906175044 77 93 0.0 0.0 0.00 0.00 0.00 60 1012.6
20260906175028 77 93 0.0 0.0 0.00 0.00 0.00 60 1012.4
20260906175025 77 105 0.0 0.0 0.00 0.00 0.00 61 1012.5
20260906175020 77 93 0.0 0.0 0.00 0.00 0.00 60 1012.5
20260906174751 77 136 0.0 0.0 0.00 0.00 0.00 63 1012.6
20260906174543 77 338 0.0 0.0 0.00 0.00 0.00 60 1012.3
20260906174441 77 338 0.0 0.0 0.00 0.00 0.00 61 1012.4
20260906174340 77 236 0.0 0.0 0.00 0.00 0.00 59 1012.5
20260906174240 77 44 0.0 0.0 0.00 0.00 0.00 59 1012.5
20260906174139 77 45 0.0 0.0 0.00 0.00 0.00 59 1012.5
20260906174120 77 70 0.0 0.0 0.00 0.00 0.00 60 1012.6
20260906174115 77 56 0.0 0.0 0.00 0.00 0.00 60 1012.5
20260906174028 77 55 0.0 0.0 0.00 0.00 0.00 59 1012.5
20260906174002 77 55 0.0 0.0 0.00 0.00 0.00 59 1012.6
20260906173739 77 66 0.0 0.0 0.00 0.00 0.00 61 1012.6
20260906173636 77 319 0.0 0.0 0.00 0.00 0.00 60 1012.6
20260906173536 77 313 0.0 0.0 0.00 0.00 0.00 62 1012.7
20260906173528 77 311 0.0 0.0 0.00 0.00 0.00 62 1012.6
20260906173435 77 311 0.0 0.0 0.00 0.00 0.00 62 1012.7
20260906173335 76 311 0.0 0.0 0.00 0.00 0.00 60 1012.8
20260906173235 76 311 0.0 0.0 0.00 0.00 0.00 59 1012.8
20260906173147 76 5 0.0 0.0 0.00 0.00 0.00 61 1012.8
20260906173143 76 19 0.0 0.0 0.00 0.00 0.00 61 1012.8
20260906173028 76 12 0.0 0.0 0.00 0.00 0.00 61 1012.7
20260906172933 76 53 0.0 0.0 0.00 0.00 0.00 61 1012.8
20260906172833 76 333 0.0 0.0 0.00 0.00 0.00 61 1012.9
20260906172751 76 333 0.0 0.0 0.00 0.00 0.00 61 1012.8
20260906172740 76 333 0.0 0.0 0.00 0.00 0.00 61 1012.9
20260906172558 76 331 0.0 0.0 0.00 0.00 0.00 61 1012.7
20260906172531 76 332 0.0 0.0 0.00 0.00 0.00 62 1012.8
20260906172430 76 335 0.0 0.0 0.00 0.00 0.00 61 1012.8
20260906172330 76 317 0.0 0.0 0.00 0.00 0.00 61 1012.8
20260906172236 76 42 0.0 0.0 0.00 0.00 0.00 62 1012.7
20260906172230 76 65 0.0 0.0 0.00 0.00 0.00 61 1012.7
20260906172130 76 65 0.0 0.0 0.00 0.00 0.00 61 1012.8
20260906172043 76 355 0.0 0.0 0.00 0.00 0.00 63 1012.7
20260906172029 76 116 0.0 0.0 0.00 0.00 0.00 63 1012.9
20260906171929 76 342 0.0 0.0 0.00 0.00 0.00 64 1012.8
20260906171828 76 339 0.0 0.0 0.00 0.00 0.00 63 1012.9
20260906171728 76 69 0.0 0.0 0.00 0.00 0.00 62 1012.9
20260906171627 76 17 0.0 0.0 0.00 0.00 0.00 62 1012.9
20260906171528 76 355 0.0 0.0 0.00 0.00 0.00 63 1012.8
20260906171427 76 347 0.0 0.0 0.00 0.00 0.00 64 1012.9
20260906171359 76 12 0.0 0.0 0.00 0.00 0.00 64 1012.9
20260906171355 76 5 0.0 0.0 0.00 0.00 0.00 65 1012.9
20260906171349 76 355 0.0 0.0 0.00 0.00 0.00 65 1012.9
20260906171340 76 11 0.0 0.0 0.00 0.00 0.00 64 1012.9
20260906171029 75 308 0.0 0.0 0.00 0.00 0.00 67 1012.8
20260906171024 76 308 0.0 0.0 0.00 0.00 0.00 67 1012.9
20260906170951 75 51 0.0 0.0 0.00 0.00 0.00 66 1013.0
20260906170924 75 308 0.0 0.0 0.00 0.00 0.00 67 1012.9
20260906170840 75 308 0.0 0.0 0.00 0.00 0.00 66 1013.0
20260906170723 75 51 0.0 0.0 0.00 0.00 0.00 66 1013.0
20260906170620 75 51 0.0 0.0 0.00 0.00 0.00 66 1013.0
20260906170528 75 54 0.0 0.0 0.00 0.00 0.00 66 1012.9
20260906170520 75 51 0.0 0.0 0.00 0.00 0.00 66 1013.0
20260906170420 75 24 0.0 0.0 0.00 0.00 0.00 68 1013.0
20260906170339 75 324 0.0 0.0 0.00 0.00 0.00 67 1012.8
20260906170334 75 94 0.0 0.0 0.00 0.00 0.00 66 1012.9
20260906170325 75 324 0.0 0.0 0.00 0.00 0.00 67 1012.8
20260906170131 75 340 0.0 0.0 0.00 0.00 0.00 67 1012.7
20260906170127 75 340 0.0 0.0 0.00 0.00 0.00 66 1012.7
20260906170043 75 339 0.0 0.0 0.00 0.00 0.00 67 1012.6
20260906165918 75 341 0.0 0.0 0.00 0.00 0.00 68 1012.7
20260906165817 75 20 0.0 0.0 0.00 0.00 0.00 69 1012.8
20260906165728 75 20 0.0 0.0 0.00 0.00 0.00 68 1012.7
20260906165716 74 20 0.0 0.0 0.00 0.00 0.00 68 1012.7
20260906165615 74 296 0.0 0.0 0.00 0.00 0.00 68 1012.9
20260906165528 74 138 0.0 0.0 0.00 0.00 0.00 67 1012.8
20260906165514 74 136 0.0 0.0 0.00 0.00 0.00 68 1012.9
20260906165428 74 95 0.0 0.0 0.00 0.00 0.00 67 1012.9
20260906165424 74 138 0.0 0.0 0.00 0.00 0.00 67 1012.9
20260906165227 74 65 0.0 0.0 0.00 0.00 0.00 66 1012.8
20260906165213 74 64 0.0 0.0 0.00 0.00 0.00 66 1012.8
20260906165114 74 64 0.0 0.0 0.00 0.00 0.00 67 1012.8
20260906165055 74 61 0.0 0.0 0.00 0.00 0.00 67 1012.8
20260906165049 74 61 0.0 0.0 0.00 0.00 0.00 67 1012.8
20260906165028 74 61 0.0 0.0 0.00 0.00 0.00 67 1012.7
20260906164827 74 47 0.0 0.0 0.00 0.00 0.00 67 1012.8
20260906164818 74 40 0.0 0.0 0.00 0.00 0.00 67 1012.9
20260906164611 74 88 0.0 0.0 0.00 0.00 0.00 67 1012.9
20260906164529 74 315 0.0 0.0 0.00 0.00 0.00 67 1012.8
20260906164511 74 315 0.0 0.0 0.00 0.00 0.00 67 1012.9
20260906164451 74 76 0.0 0.0 0.00 0.00 0.00 67 1012.9
20260906164411 74 315 0.0 0.0 0.00 0.00 0.00 66 1012.9
20260906164335 74 53 0.0 0.0 0.00 0.00 0.00 67 1012.9
20260906164209 74 76 0.0 0.0 0.00 0.00 0.00 67 1012.9
20260906164109 74 91 0.0 0.0 0.00 0.00 0.00 68 1012.8
20260906164028 74 355 0.0 0.0 0.00 0.00 0.00 68 1012.7
20260906164009 74 355 0.0 0.0 0.00 0.00 0.00 68 1012.8
20260906163909 74 253 0.0 0.0 0.00 0.00 0.00 70 1012.8
20260906163809 74 313 0.0 0.0 0.00 0.00 0.00 70 1012.8
20260906163720 73 18 0.0 0.0 0.00 0.00 0.00 70 1012.7
20260906163716 73 281 0.0 0.0 0.00 0.00 0.00 69 1012.8
20260906163528 73 346 0.0 0.0 0.00 0.00 0.00 72 1012.7
20260906163414 73 88 0.0 0.0 0.00 0.00 0.00 71 1012.9
20260906163245 73 74 0.0 0.0 0.00 0.00 0.00 72 1012.9
20260906163239 73 65 0.0 0.0 0.00 0.00 0.00 72 1013.0
20260906163127 73 49 0.0 0.0 0.00 0.00 0.00 70 1013.0
20260906163121 73 68 0.0 0.0 0.00 0.00 0.00 72 1013.0
20260906163028 73 64 0.0 0.0 0.00 0.00 0.00 70 1012.9
20260906162803 73 63 0.0 0.0 0.00 0.00 0.00 70 1013.1
20260906162723 73 62 0.0 0.0 0.00 0.00 0.00 70 1013.1
20260906162702 73 0 0.0 0.0 0.00 0.00 0.00 70 1013.1
20260906162615 73 103 0.0 0.0 0.00 0.00 0.00 70 1013.1
20260906162610 73 103 0.0 0.0 0.00 0.00 0.00 71 1013.1
20260906162528 73 103 0.0 0.0 0.00 0.00 0.00 70 1013.0
20260906162415 73 114 0.0 0.0 0.00 0.00 0.00 71 1013.1
20260906162411 73 104 0.0 0.0 0.00 0.00 0.00 71 1013.1
20260906162222 73 0 0.0 0.0 0.00 0.00 0.00 70 1013.1
20260906162200 74 0 0.0 0.0 0.00 0.00 0.00 70 1013.1
20260906162101 74 0 0.0 0.0 0.00 0.00 0.00 69 1013.1
20260906162043 74 346 0.0 0.0 0.00 0.00 0.00 68 1013.0
20260906161959 74 346 0.0 0.0 0.00 0.00 0.00 68 1013.1
20260906161859 74 346 0.0 0.0 0.00 0.00 0.00 68 1013.0
20260906161759 74 346 0.0 0.0 0.00 0.00 0.00 67 1013.0
20260906161721 74 346 0.0 0.0 0.00 0.00 0.00 67 1013.0
20260906161658 74 346 0.0 0.0 0.00 0.00 0.00 67 1013.0
20260906161558 74 346 0.0 0.0 0.00 0.00 0.00 68 1013.0
20260906161529 75 346 0.0 0.0 0.00 0.00 0.00 66 1012.9
20260906161458 75 346 0.0 0.0 0.00 0.00 0.00 66 1013.0
20260906161411 75 331 0.0 0.0 0.00 0.00 0.00 67 1013.0
20260906161406 75 346 0.0 0.0 0.00 0.00 0.00 66 1013.0
20260906161220 75 331 0.0 0.0 0.00 0.00 0.00 67 1013.0
20260906161156 75 331 0.0 0.0 0.00 0.00 0.00 67 1013.1
20260906161056 75 347 0.0 0.0 0.00 0.00 0.00 66 1013.0
20260906161028 75 345 0.0 0.0 0.00 0.00 0.00 66 1012.9
20260906160956 75 345 0.0 0.0 0.00 0.00 0.00 66 1013.0
20260906160855 76 345 0.0 0.0 0.00 0.00 0.00 65 1012.9
20260906160755 76 344 0.0 0.0 0.00 0.00 0.00 66 1012.9
20260906160720 76 344 0.0 0.0 0.00 0.00 0.00 66 1012.9
20260906160654 76 344 0.0 0.0 0.00 0.00 0.00 66 1009.3
20260906160554 76 346 0.0 0.0 0.00 0.00 0.00 67 1009.3
20260906160528 75 19 0.0 0.0 0.00 0.00 0.00 67 1009.2
20260906160455 75 24 0.0 0.0 0.00 0.00 0.00 67 1009.3
20260906160440 75 72 0.0 0.0 0.00 0.00 0.00 67 1009.3
20260906160354 75 349 0.0 0.0 0.00 0.00 0.00 67 1009.3
20260906160327 75 330 0.0 0.0 0.00 0.00 0.00 67 1009.3
20260906160153 75 72 0.0 0.0 0.00 0.00 0.00 68 1009.3
20260906160052 75 76 0.0 0.0 0.00 0.00 0.00 70 1009.3
20260906160028 75 355 0.0 0.0 0.00 0.00 0.00 67 1009.2
20260906155951 75 355 0.0 0.0 0.00 0.00 0.00 67 1009.3
20260906155852 75 34 0.0 0.0 0.00 0.00 0.00 68 1009.3
20260906155752 75 67 0.0 0.0 0.00 0.00 0.00 68 1009.2
20260906155717 75 50 0.0 0.0 0.00 0.00 0.00 68 1009.2
20260906155651 74 63 0.0 0.0 0.00 0.00 0.00 67 1009.2
20260906155605 74 342 0.0 0.0 0.00 0.00 0.00 68 1009.1
20260906155559 74 100 0.0 0.0 0.00 0.00 0.00 68 1009.1
20260906155528 74 342 0.0 0.0 0.00 0.00 0.00 68 1009.0
20260906155350 74 341 0.0 0.0 0.00 0.00 0.00 69 1009.0
20260906155249 74 16 0.0 0.0 0.00 0.00 0.00 68 1009.1
20260906155216 74 102 0.0 0.0 0.00 0.00 0.00 68 1009.1
20260906155149 74 252 0.0 0.0 0.00 0.00 0.00 69 1009.0
20260906155102 74 265 0.0 0.0 0.00 0.00 0.00 69 1009.1
20260906155056 74 265 0.0 0.0 0.00 0.00 0.00 69 1008.9
20260906155028 74 265 0.0 0.0 0.00 0.00 0.00 69 1009.0
20260906154927 74 265 0.0 0.0 0.00 0.00 0.00 70 1013.0
20260906154815 74 265 0.0 0.0 0.00 0.00 0.00 67 1013.0
20260906154810 74 265 0.0 0.0 0.00 0.00 0.00 69 1013.0
20260906154802 74 265 0.0 0.0 0.00 0.00 0.00 68 1013.0
20260906154528 74 265 0.0 0.0 0.00 0.00 0.00 68 1008.2
20260906154447 74 265 0.0 0.0 0.00 0.00 0.00 68 1008.3
20260906154440 74 338 0.0 0.0 0.00 0.00 0.00 69 1008.3
20260906154436 74 229 0.0 0.0 0.00 0.00 0.00 70 1008.3
20260906154430 74 264 0.0 0.0 0.00 0.00 0.00 68 1008.3
20260906154312 74 276 0.0 0.0 0.00 0.00 0.00 70 1008.3
20260906154052 74 5 0.0 0.0 0.00 0.00 0.00 70 1008.3
20260906154029 74 5 0.0 0.0 0.00 0.00 0.00 70 1008.1
20260906153843 74 5 0.0 0.0 0.00 0.00 0.00 70 1011.9
20260906153742 74 5 0.0 0.0 0.00 0.00 0.00 69 1011.9
20260906153714 74 338 0.0 0.0 0.00 0.00 0.00 70 1011.9
20260906153642 74 334 0.0 0.0 0.00 0.00 0.00 70 1011.9
20260906153553 74 309 0.0 0.0 0.00 0.00 0.00 72 1008.8
20260906153548 74 336 0.0 0.0 0.00 0.00 0.00 70 1008.8
20260906153543 74 273 0.0 0.0 0.00 0.00 0.00 70 1008.7
20260906153405 74 247 0.0 0.0 0.00 0.00 0.00 72 1008.8
20260906153252 73 245 0.0 0.0 0.00 0.00 0.00 73 1007.6
20260906153244 73 244 0.0 0.0 0.00 0.00 0.00 71 1007.6
20260906153037 73 286 0.0 0.0 0.00 0.00 0.00 71 1007.7
20260906153028 73 292 0.0 0.0 0.00 0.00 0.00 71 1007.6
20260906152937 73 345 0.0 0.0 0.00 0.00 0.00 73 1007.7
20260906152835 73 30 0.0 0.0 0.00 0.00 0.00 73 1007.7
20260906152735 73 32 0.0 0.0 0.00 0.00 0.00 72 1007.7
20260906152712 73 37 0.0 0.0 0.00 0.00 0.00 72 1007.7
20260906152635 73 292 0.0 0.0 0.00 0.00 0.00 72 1007.7
20260906152533 73 292 0.0 0.0 0.00 0.00 0.00 72 1007.2
20260906152529 73 300 0.0 0.0 0.00 0.00 0.00 72 1007.2
20260906152447 73 336 0.0 0.0 0.00 0.00 0.00 73 1007.4
20260906152441 73 45 0.0 0.0 0.00 0.00 0.00 72 1007.3
20260906152232 73 333 0.0 0.0 0.00 0.00 0.00 72 1013.0
20260906152212 73 333 0.0 0.0 0.00 0.00 0.00 72 1013.0
20260906152131 73 345 0.0 0.0 0.00 0.00 0.00 72 1013.0
20260906152043 73 317 0.0 0.0 0.00 0.00 0.00 72 1013.0
20260906152029 73 319 0.0 0.0 0.00 0.00 0.00 73 1013.0
20260906151941 73 316 0.0 0.0 0.00 0.00 0.00 73 1013.0
20260906151937 73 319 0.0 0.0 0.00 0.00 0.00 72 1013.1
20260906151727 73 315 0.0 0.0 0.00 0.00 0.00 74 1012.3
20260906151713 73 314 0.0 0.0 0.00 0.00 0.00 74 1012.3
20260906151626 73 271 0.0 0.0 0.00 0.00 0.00 74 1012.3
20260906151543 73 319 0.0 0.0 0.00 0.00 0.00 73 1012.2
20260906151541 73 319 0.0 0.0 0.00 0.00 0.00 73 1012.3
20260906151536 73 319 0.0 0.0 0.00 0.00 0.00 73 1012.3
20260906151325 73 341 0.0 0.0 0.00 0.00 0.00 73 1012.3
20260906151225 73 301 0.0 0.0 0.00 0.00 0.00 74 1007.0
20260906151209 73 302 0.0 0.0 0.00 0.00 0.00 74 1007.0
20260906151124 72 283 0.0 0.0 0.00 0.00 0.00 74 1007.0
20260906151029 72 57 0.0 0.0 0.00 0.00 0.00 74 1012.5
20260906151023 72 307 0.0 0.0 0.00 0.00 0.00 74 1012.6
20260906150922 72 60 0.0 0.0 0.00 0.00 0.00 74 1012.6
20260906150822 72 60 0.0 0.0 0.00 0.00 0.00 72 1012.6
20260906150709 73 61 0.0 0.0 0.00 0.00 0.00 71 1012.2
20260906150621 73 346 0.0 0.0 0.00 0.00 0.00 71 1012.8
20260906150544 73 0 0.0 0.0 0.00 0.00 0.00 71 1012.8
20260906150528 73 360 0.0 0.0 0.00 0.00 0.00 71 1012.7
20260906150430 73 39 0.0 0.0 0.00 0.00 0.00 71 1012.8
20260906150240 73 355 0.0 0.0 0.00 0.00 0.00 71 1012.7
20260906150235 73 349 0.0 0.0 0.00 0.00 0.00 71 1012.7
20260906150228 73 347 0.0 0.0 0.00 0.00 0.00 71 1012.7
20260906150028 73 318 0.0 0.0 0.00 0.00 0.00 71 1012.5
20260906150020 73 316 0.0 0.0 0.00 0.00 0.00 71 1012.7
20260906145918 73 302 0.0 0.0 0.00 0.00 0.00 70 1012.6
20260906145817 74 283 0.0 0.0 0.00 0.00 0.00 71 1011.7
20260906145706 74 321 0.0 0.0 0.00 0.00 0.00 71 1011.7
20260906145615 74 321 0.0 0.0 0.00 0.00 0.00 71 1012.7
20260906145529 74 355 0.0 0.0 0.00 0.00 0.00 72 1012.6
20260906145515 74 355 0.0 0.0 0.00 0.00 0.00 72 1012.7
20260906145429 74 323 0.0 0.0 0.00 0.00 0.00 73 1012.8
20260906145423 74 281 0.0 0.0 0.00 0.00 0.00 72 1012.7
20260906145233 74 323 0.0 0.0 0.00 0.00 0.00 71 1006.4
20260906145221 74 323 0.0 0.0 0.00 0.00 0.00 72 1012.8
20260906145043 74 323 0.0 0.0 0.00 0.00 0.00 71 1006.4
20260906145013 74 323 0.0 0.0 0.00 0.00 0.00 71 1006.4
20260906144912 74 313 0.0 0.0 0.00 0.00 0.00 73 1006.4
20260906144810 74 284 0.0 0.0 0.00 0.00 0.00 73 1009.1
20260906144707 74 311 0.0 0.0 0.00 0.00 0.00 74 1009.1
20260906144609 73 327 0.0 0.0 0.00 0.00 0.00 74 1009.1
20260906144528 73 327 0.0 0.0 0.00 0.00 0.00 74 1006.6
20260906144509 73 327 0.0 0.0 0.00 0.00 0.00 74 1009.1
20260906144422 73 327 0.0 0.0 0.00 0.00 0.00 74 1006.7
20260906144417 73 327 0.0 0.0 0.00 0.00 0.00 75 1006.7
20260906144209 73 327 0.0 0.0 0.00 0.00 0.00 74 1012.0
20260906144107 73 331 0.0 0.0 0.00 0.00 0.00 73 1012.0
20260906144028 73 331 0.0 0.0 0.00 0.00 0.00 72 1012.7
20260906144007 73 331 0.0 0.0 0.00 0.00 0.00 72 1012.8
20260906143906 73 331 0.0 0.0 0.00 0.00 0.00 72 1012.8
20260906143820 73 331 0.0 0.0 0.00 0.00 0.00 72 1013.0
20260906143811 73 331 0.0 0.0 0.00 0.00 0.00 72 1013.0
20260906143606 73 330 0.0 0.0 0.00 0.00 0.00 72 1013.0
20260906143528 73 300 0.0 0.0 0.00 0.00 0.00 71 1013.0
20260906143519 74 300 0.0 0.0 0.00 0.00 0.00 71 1013.1
20260906143514 73 300 0.0 0.0 0.00 0.00 0.00 71 1013.1
20260906143305 74 306 0.0 0.0 0.00 0.00 0.00 70 1013.0
20260906143209 74 306 0.0 0.0 0.00 0.00 0.00 70 1013.0
20260906143203 74 306 0.0 0.0 0.00 0.00 0.00 70 1012.9
20260906143103 74 302 0.0 0.0 0.00 0.00 0.00 71 1012.9
20260906143028 74 327 0.0 0.0 0.00 0.00 0.00 71 1012.7
20260906143004 74 327 0.0 0.0 0.00 0.00 0.00 71 1012.8
20260906142901 74 330 0.0 0.0 0.00 0.00 0.00 70 1012.8
20260906142801 74 330 0.0 0.0 0.00 0.00 0.00 69 1012.8
20260906142706 74 121 0.0 0.0 0.00 0.00 0.00 69 1012.8
20260906142701 74 121 0.0 0.0 0.00 0.00 0.00 69 1012.6
20260906142600 74 123 0.0 0.0 0.00 0.00 0.00 70 1012.5
20260906142528 74 123 0.0 0.0 0.00 0.00 0.00 70 1012.5
20260906142459 74 123 0.0 0.0 0.00 0.00 0.00 70 1012.6
20260906142316 74 355 0.0 0.0 0.00 0.00 0.00 71 1006.7
20260906142310 74 355 0.0 0.0 0.00 0.00 0.00 71 1012.4
20260906142301 74 355 0.0 0.0 0.00 0.00 0.00 71 1006.7
20260906142056 74 351 0.0 0.0 0.00 0.00 0.00 71 1006.7
20260906142028 74 351 0.0 0.0 0.00 0.00 0.00 71 1006.7
20260906141955 74 351 0.0 0.0 0.00 0.00 0.00 71 1006.7
20260906141854 74 350 0.0 0.0 0.00 0.00 0.00 71 1006.7
20260906141813 74 350 0.0 0.0 0.00 0.00 0.00 70 1007.1
20260906141808 74 355 0.0 0.0 0.00 0.00 0.00 70 1007.0
20260906141800 74 355 0.0 0.0 0.00 0.00 0.00 70 1007.1
20260906141553 74 355 0.0 0.0 0.00 0.00 0.00 70 1007.2
20260906141528 74 355 0.0 0.0 0.00 0.00 0.00 70 1007.2
20260906141452 74 355 0.0 0.0 0.00 0.00 0.00 70 1007.2
20260906141352 74 309 0.0 0.0 0.00 0.00 0.00 70 1007.3
20260906141311 74 5 0.0 0.0 0.00 0.00 0.00 70 1007.2
20260906141305 74 321 0.0 0.0 0.00 0.00 0.00 70 1007.3
20260906141258 74 9 0.0 0.0 0.00 0.00 0.00 70 1007.2
20260906141054 74 325 0.0 0.0 0.00 0.00 0.00 72 1007.2
20260906141050 74 342 0.0 0.0 0.00 0.00 0.00 70 1007.2
20260906141028 74 342 0.0 0.0 0.00 0.00 0.00 71 1007.3
20260906141002 73 325 0.0 0.0 0.00 0.00 0.00 72 1007.2
20260906140957 73 69 0.0 0.0 0.00 0.00 0.00 72 1007.4
20260906140953 74 344 0.0 0.0 0.00 0.00 0.00 71 1007.3
20260906140944 74 325 0.0 0.0 0.00 0.00 0.00 71 1007.3
20260906140934 74 324 0.0 0.0 0.00 0.00 0.00 71 1007.2
20260906140605 73 69 0.0 0.0 0.00 0.00 0.00 73 1007.2
20260906140529 73 69 0.0 0.0 0.00 0.00 0.00 72 1007.3
20260906140247 73 300 0.0 0.0 0.00 0.00 0.00 72 1007.5
20260906140204 73 341 0.0 0.0 0.00 0.00 0.00 73 1007.5
20260906140146 73 342 0.0 0.0 0.00 0.00 0.00 72 1007.6
20260906140046 73 314 0.0 0.0 0.00 0.00 0.00 72 1007.5
20260906140029 73 317 0.0 0.0 0.00 0.00 0.00 71 1007.4
20260906135943 73 317 0.0 0.0 0.00 0.00 0.00 71 1007.5
20260906135916 73 317 0.0 0.0 0.00 0.00 0.00 71 1007.5
20260906135912 73 317 0.0 0.0 0.00 0.00 0.00 71 1007.6
20260906135906 73 317 0.0 0.0 0.00 0.00 0.00 71 1007.5
20260906135749 73 317 0.0 0.0 0.00 0.00 0.00 71 1007.5
20260906135542 73 317 0.0 0.0 0.00 0.00 0.00 71 1007.6
20260906135528 73 317 0.0 0.0 0.00 0.00 0.00 71 1007.6
20260906135443 73 317 0.0 0.0 0.00 0.00 0.00 72 1007.6
20260906135341 73 317 0.0 0.0 0.00 0.00 0.00 73 1007.6
20260906135241 73 315 0.0 0.0 0.00 0.00 0.00 73 1007.5
20260906135203 73 315 0.0 0.0 0.00 0.00 0.00 73 1007.6
20260906135140 73 315 0.0 0.0 0.00 0.00 0.00 73 1007.6
20260906135040 73 315 0.0 0.0 0.00 0.00 0.00 72 1007.6
20260906135029 73 315 0.0 0.0 0.00 0.00 0.00 72 1007.6
20260906134939 73 314 0.0 0.0 0.00 0.00 0.00 72 1007.6
20260906134853 73 80 0.0 0.0 0.00 0.00 0.00 71 1007.8
20260906134848 73 79 0.0 0.0 0.00 0.00 0.00 71 1007.7
20260906134703 73 78 0.0 0.0 0.00 0.00 0.00 72 1007.9
20260906134639 73 85 0.0 0.0 0.00 0.00 0.00 72 1007.9
20260906134607 73 85 0.0 0.0 0.00 0.00 0.00 74 1007.9
20260906134603 73 80 0.0 0.0 0.00 0.00 0.00 74 1007.9
20260906134557 73 85 0.0 0.0 0.00 0.00 0.00 73 1007.9
20260906134528 73 85 0.0 0.0 0.00 0.00 0.00 73 1007.9
20260906134238 73 49 0.0 0.0 0.00 0.00 0.00 74 1008.1
20260906134202 73 49 0.0 0.0 0.00 0.00 0.00 74 1008.0
20260906134138 73 49 0.0 0.0 0.00 0.00 0.00 74 1008.0
20260906134038 72 69 0.0 0.0 0.00 0.00 0.00 74 1008.0
20260906134028 72 69 0.0 0.0 0.00 0.00 0.00 75 1007.9
20260906133937 72 69 0.0 0.0 0.00 0.00 0.00 75 1007.9
20260906133837 72 69 0.0 0.0 0.00 0.00 0.00 74 1008.0
20260906133737 72 69 0.0 0.0 0.00 0.00 0.00 74 1007.9
20260906133702 72 105 0.0 0.0 0.00 0.00 0.00 74 1007.9
20260906133636 72 105 0.0 0.0 0.00 0.00 0.00 74 1007.9
20260906133551 72 105 0.0 0.0 0.00 0.00 0.00 74 1008.0
20260906133546 72 105 0.0 0.0 0.00 0.00 0.00 73 1007.9
20260906133543 72 105 0.0 0.0 0.00 0.00 0.00 74 1008.0
20260906133336 72 90 0.0 0.0 0.00 0.00 0.00 75 1007.9
20260906133236 72 337 0.0 0.0 0.00 0.00 0.00 74 1007.7
20260906133158 72 337 0.0 0.0 0.00 0.00 0.00 74 1008.0
20260906133044 72 332 0.0 0.0 0.00 0.00 0.00 74 1008.1
20260906132921 72 84 0.0 0.0 0.00 0.00 0.00 76 1008.3
20260906132835 72 84 0.0 0.0 0.00 0.00 0.00 74 1008.1
20260906132816 72 84 0.0 0.0 0.00 0.00 0.00 76 1008.4
20260906132809 72 84 0.0 0.0 0.00 0.00 0.00 76 1008.2
20260906132655 72 84 0.0 0.0 0.00 0.00 0.00 76 1008.2
20260906132650 72 84 0.0 0.0 0.00 0.00 0.00 76 1008.3
20260906132544 72 84 0.0 0.0 0.00 0.00 0.00 76 1008.2
20260906132331 72 332 0.0 0.0 0.00 0.00 0.00 78 1008.2
20260906132231 71 331 0.0 0.0 0.00 0.00 0.00 78 1008.2
20260906132200 71 331 0.0 0.0 0.00 0.00 0.00 78 1008.3
20260906132131 71 331 0.0 0.0 0.00 0.00 0.00 78 1008.3
20260906132059 71 331 0.0 0.0 0.00 0.00 0.00 77 1008.2
20260906132045 71 333 0.0 0.0 0.00 0.00 0.00 78 1008.3
20260906132040 71 331 0.0 0.0 0.00 0.00 0.00 77 1008.2
20260906131830 71 332 0.0 0.0 0.00 0.00 0.00 78 1008.5
20260906131730 71 332 0.0 0.0 0.00 0.00 0.00 78 1008.4
20260906131700 71 332 0.0 0.0 0.00 0.00 0.00 78 1008.4
20260906131630 71 332 0.0 0.0 0.00 0.00 0.00 77 1008.4
20260906131543 71 334 0.0 0.0 0.00 0.00 0.00 79 1008.4
20260906131529 71 334 0.0 0.0 0.00 0.00 0.00 79 1008.4
20260906131429 71 106 0.0 0.0 0.00 0.00 0.00 78 1008.5
20260906131327 71 107 0.0 0.0 0.00 0.00 0.00 79 1008.3
20260906131226 70 88 0.0 0.0 0.00 0.00 0.00 80 1008.4
20260906131200 70 89 0.0 0.0 0.00 0.00 0.00 80 1008.6
20260906131139 70 264 0.0 0.0 0.00 0.00 0.00 80 1008.6
20260906131134 70 264 0.0 0.0 0.00 0.00 0.00 80 1008.6
20260906131028 70 264 0.0 0.0 0.00 0.00 0.00 80 1008.5
20260906130924 70 264 0.0 0.0 0.00 0.00 0.00 80 1008.6
20260906130824 70 264 0.0 0.0 0.00 0.00 0.00 81 1008.9
20260906130723 70 264 0.0 0.0 0.00 0.00 0.00 82 1009.3
20260906130700 70 264 0.0 0.0 0.00 0.00 0.00 82 1008.7
20260906130637 69 264 0.0 0.0 0.00 0.00 0.00 83 1008.9
20260906130631 69 264 0.0 0.0 0.00 0.00 0.00 82 1008.7
20260906130528 69 264 0.0 0.0 0.00 0.00 0.00 83 1008.9
20260906130450 69 264 0.0 0.0 0.00 0.00 0.00 83 1008.9
20260906130446 69 264 0.0 0.0 0.00 0.00 0.00 83 1009.1
20260906130442 69 264 0.0 0.0 0.00 0.00 0.00 83 1009.0
20260906130159 69 264 0.0 0.0 0.00 0.00 0.00 82 1008.9
20260906130123 69 264 0.0 0.0 0.00 0.00 0.00 82 1008.9
20260906130028 69 264 0.0 0.0 0.00 0.00 0.00 83 1011.5
20260906130022 69 264 0.0 0.0 0.00 0.00 0.00 83 1008.8
20260906125922 69 264 0.0 0.0 0.00 0.00 0.00 83 1011.5
20260906125821 69 264 0.0 0.0 0.00 0.00 0.00 83 1011.5
20260906125719 69 264 0.0 0.0 0.00 0.00 0.00 84 1011.5
20260906125658 69 264 0.0 0.0 0.00 0.00 0.00 84 1011.9
20260906125619 68 263 0.0 0.0 0.00 0.00 0.00 84 1011.9
20260906125543 68 325 0.0 0.0 0.00 0.00 0.00 85 1012.2
20260906125516 68 325 0.0 0.0 0.00 0.00 0.00 85 1012.1
20260906125413 68 325 0.0 0.0 0.00 0.00 0.00 85 1012.2
20260906125312 68 325 0.0 0.0 0.00 0.00 0.00 86 1012.2
20260906125212 68 326 0.0 0.0 0.00 0.00 0.00 86 1012.2
20260906125158 68 326 0.0 0.0 0.00 0.00 0.00 86 1012.2
20260906125113 68 327 0.0 0.0 0.00 0.00 0.00 85 1012.2
20260906125028 68 327 0.0 0.0 0.00 0.00 0.00 86 1012.2
20260906125011 68 327 0.0 0.0 0.00 0.00 0.00 86 1012.1
20260906124925 67 331 0.0 0.0 0.00 0.00 0.00 88 1012.2
20260906124919 68 320 0.0 0.0 0.00 0.00 0.00 88 1012.2
20260906124710 67 331 0.0 0.0 0.00 0.00 0.00 89 1012.2
20260906124657 67 331 0.0 0.0 0.00 0.00 0.00 89 1012.2
20260906124609 67 331 0.0 0.0 0.00 0.00 0.00 89 1012.2
20260906124529 67 331 0.0 0.0 0.00 0.00 0.00 89 1012.2
20260906124509 67 331 0.0 0.0 0.00 0.00 0.00 89 1012.2
20260906124409 67 331 0.0 0.0 0.00 0.00 0.00 89 1012.2
20260906124308 67 331 0.0 0.0 0.00 0.00 0.00 90 1012.2
20260906124208 67 332 0.0 0.0 0.00 0.00 0.00 91 1012.1
20260906124155 66 332 0.0 0.0 0.00 0.00 0.00 91 1012.2
20260906124108 66 332 0.0 0.0 0.00 0.00 0.00 91 1012.2
20260906124028 66 332 0.0 0.0 0.00 0.00 0.00 91 1012.1
20260906124007 66 332 0.0 0.0 0.00 0.00 0.00 91 1012.2
20260906123907 66 333 0.0 0.0 0.00 0.00 0.00 92 1012.1
20260906123807 66 333 0.0 0.0 0.00 0.00 0.00 92 1012.1
20260906123706 66 333 0.0 0.0 0.00 0.00 0.00 92 1012.2
20260906123652 66 333 0.0 0.0 0.00 0.00 0.00 92 1012.2
20260906123606 65 333 0.0 0.0 0.00 0.00 0.00 92 1012.1
20260906123528 65 333 0.0 0.0 0.00 0.00 0.00 92 1012.1
20260906123506 65 333 0.0 0.0 0.00 0.00 0.00 92 1012.1
20260906123427 65 333 0.0 0.0 0.00 0.00 0.00 93 1012.1
20260906123423 65 333 0.0 0.0 0.00 0.00 0.00 93 1012.2
20260906123417 65 333 0.0 0.0 0.00 0.00 0.00 93 1012.1
20260906123259 65 333 0.0 0.0 0.00 0.00 0.00 93 1012.2
20260906123102 65 333 0.0 0.0 0.00 0.00 0.00 93 1012.2
20260906123033 65 340 0.0 0.0 0.00 0.00 0.00 94 1012.2
20260906123028 65 340 0.0 0.0 0.00 0.00 0.00 94 1012.2
20260906122921 64 342 0.0 0.0 0.00 0.00 0.00 94 1012.1
20260906122916 65 341 0.0 0.0 0.00 0.00 0.00 94 1012.1
20260906122907 65 341 0.0 0.0 0.00 0.00 0.00 94 1012.1
20260906122601 64 232 0.0 0.0 0.00 0.00 0.00 94 1012.1
20260906122529 64 232 0.0 0.0 0.00 0.00 0.00 95 1012.2
20260906122514 64 232 0.0 0.0 0.00 0.00 0.00 95 1012.1
20260906122510 64 232 0.0 0.0 0.00 0.00 0.00 95 1012.1
20260906122300 64 232 0.0 0.0 0.00 0.00 0.00 95 1012.0
20260906122149 64 232 0.0 0.0 0.00 0.00 0.00 95 1012.0
20260906122059 64 232 0.0 0.0 0.00 0.00 0.00 95 1012.0
20260906122028 64 232 0.0 0.0 0.00 0.00 0.00 95 1012.1
20260906121959 64 232 0.0 0.0 0.00 0.00 0.00 95 1012.0
20260906121859 64 232 0.0 0.0 0.00 0.00 0.00 95 1012.0
20260906121757 64 232 0.0 0.0 0.00 0.00 0.00 96 1012.0
20260906121657 64 232 0.0 0.0 0.00 0.00 0.00 96 1012.0
20260906121647 64 230 0.0 0.0 0.00 0.00 0.00 96 1012.0
20260906121557 64 230 0.0 0.0 0.00 0.00 0.00 96 1012.0
20260906121529 64 230 0.0 0.0 0.00 0.00 0.00 96 1012.1
20260906121457 64 230 0.0 0.0 0.00 0.00 0.00 96 1012.0
20260906121357 63 230 0.0 0.0 0.00 0.00 0.00 96 1012.1
20260906121256 63 230 0.0 0.0 0.00 0.00 0.00 96 1012.1
20260906121145 63 230 0.0 0.0 0.00 0.00 0.00 96 1012.1
20260906121123 63 230 0.0 0.0 0.00 0.00 0.00 96 1012.1
20260906121118 63 230 0.0 0.0 0.00 0.00 0.00 96 1012.1
20260906121114 63 230 0.0 0.0 0.00 0.00 0.00 96 1012.1
20260906121029 63 230 0.0 0.0 0.00 0.00 0.00 96 1012.2
20260906120753 63 230 0.0 0.0 0.00 0.00 0.00 97 1012.1
20260906120653 63 230 0.0 0.0 0.00 0.00 0.00 96 1012.1
20260906120643 63 230 0.0 0.0 0.00 0.00 0.00 96 1012.1
20260906120606 63 230 0.0 0.0 0.00 0.00 0.00 97 1012.1
20260906120602 63 230 0.0 0.0 0.00 0.00 0.00 97 1012.1
20260906120529 63 230 0.0 0.0 0.00 0.00 0.00 97 1012.2
20260906120353 63 230 0.0 0.0 0.00 0.00 0.00 97 1012.1
20260906120252 63 230 0.0 0.0 0.00 0.00 0.00 97 1012.1
20260906120143 63 230 0.0 0.0 0.00 0.00 0.00 97 1012.0
20260906120126 63 230 0.0 0.0 0.00 0.00 0.00 97 1012.0
20260906120121 63 230 0.0 0.0 0.00 0.00 0.00 97 1012.1
20260906120028 63 230 0.0 0.0 0.00 0.00 0.00 97 1012.1
20260906120008 63 230 0.0 0.0 0.00 0.00 0.00 97 1012.0
20260906115642 62 230 0.0 0.0 0.00 0.00 0.00 97 1012.0
20260906115548 62 230 0.0 0.0 0.00 0.00 0.00 97 1012.1
20260906115543 62 230 0.0 0.0 0.00 0.00 0.00 97 1012.2
20260906115449 62 230 0.0 0.0 0.00 0.00 0.00 97 1012.1
20260906115348 62 230 0.0 0.0 0.00 0.00 0.00 97 1012.1
20260906115248 62 230 0.0 0.0 0.00 0.00 0.00 97 1012.1
20260906115206 62 230 0.0 0.0 0.00 0.00 0.00 97 1012.2
20260906115154 62 230 0.0 0.0 0.00 0.00 0.00 97 1012.2
20260906115028 62 230 0.0 0.0 0.00 0.00 0.00 97 1012.4
20260906115000 61 230 0.0 0.0 0.00 0.00 0.00 97 1012.2
20260906114956 62 230 0.0 0.0 0.00 0.00 0.00 97 1012.3
20260906114746 61 230 0.0 0.0 0.00 0.00 0.00 97 1012.3
20260906114638 61 230 0.0 0.0 0.00 0.00 0.00 97 1012.3
20260906114607 61 230 0.0 0.0 0.00 0.00 0.00 97 1012.3
20260906114529 61 230 0.0 0.0 0.00 0.00 0.00 97 1012.3
20260906114453 61 230 0.0 0.0 0.00 0.00 0.00 97 1012.2
20260906114258 60 230 0.0 0.0 0.00 0.00 0.00 97 1012.2
20260906114253 60 230 0.0 0.0 0.00 0.00 0.00 97 1012.3
20260906114136 60 230 0.0 0.0 0.00 0.00 0.00 97 1012.2
20260906114043 60 230 0.0 0.0 0.00 0.00 0.00 97 1012.2
20260906114028 60 230 0.0 0.0 0.00 0.00 0.00 97 1012.3
20260906113942 60 230 0.0 0.0 0.00 0.00 0.00 97 1012.2
20260906113840 60 230 0.0 0.0 0.00 0.00 0.00 97 1012.1
20260906113740 60 230 0.0 0.0 0.00 0.00 0.00 97 1012.1
20260906113638 60 230 0.0 0.0 0.00 0.00 0.00 97 1012.1
20260906113540 60 230 0.0 0.0 0.00 0.00 0.00 97 1012.1
20260906113529 60 230 0.0 0.0 0.00 0.00 0.00 97 1012.2
20260906113452 60 230 0.0 0.0 0.00 0.00 0.00 97 1012.1
20260906113448 60 230 0.0 0.0 0.00 0.00 0.00 97 1012.1
20260906113238 60 230 0.0 0.0 0.00 0.00 0.00 97 1012.1
20260906113157 60 230 0.0 0.0 0.00 0.00 0.00 97 1012.1
20260906113146 60 230 0.0 0.0 0.00 0.00 0.00 97 1012.1
20260906113028 60 230 0.0 0.0 0.00 0.00 0.00 97 1012.1
20260906112938 59 230 0.0 0.0 0.00 0.00 0.00 97 1012.0
20260906112850 59 230 0.0 0.0 0.00 0.00 0.00 97 1012.0
20260906112846 59 230 0.0 0.0 0.00 0.00 0.00 97 1012.1
20260906112708 59 230 0.0 0.0 0.00 0.00 0.00 97 1011.9
20260906112704 59 231 0.0 0.0 0.00 0.00 0.00 97 1011.9
20260906112652 59 230 0.0 0.0 0.00 0.00 0.00 97 1012.0
20260906112543 59 231 0.0 0.0 0.00 0.00 0.00 97 1012.0
20260906112335 58 231 0.0 0.0 0.00 0.00 0.00 97 1011.8
20260906112234 58 231 0.0 0.0 0.00 0.00 0.00 97 1011.8
20260906112152 58 230 0.0 0.0 0.00 0.00 0.00 97 1011.8
20260906112141 58 231 0.0 0.0 0.00 0.00 0.00 97 1011.8
20260906112029 58 230 0.0 0.0 0.00 0.00 0.00 97 1012.0
20260906111933 58 230 0.0 0.0 0.00 0.00 0.00 97 1011.8
20260906111840 58 230 0.0 0.0 0.00 0.00 0.00 96 1011.8
20260906111633 58 230 0.0 0.0 0.00 0.00 0.00 96 1011.8
20260906111543 58 230 0.0 0.0 0.00 0.00 0.00 96 1011.8
20260906111539 58 230 0.0 0.0 0.00 0.00 0.00 96 1011.8
20260906111529 58 230 0.0 0.0 0.00 0.00 0.00 96 1012.0
20260906111329 58 230 0.0 0.0 0.00 0.00 0.00 96 1011.7
20260906111229 58 230 0.0 0.0 0.00 0.00 0.00 96 1011.7
20260906111130 58 230 0.0 0.0 0.00 0.00 0.00 96 1011.7
20260906111029 58 230 0.0 0.0 0.00 0.00 0.00 96 1011.7
20260906110929 58 230 0.0 0.0 0.00 0.00 0.00 96 1011.7
20260906110829 58 230 0.0 0.0 0.00 0.00 0.00 96 1011.7
20260906110726 58 230 0.0 0.0 0.00 0.00 0.00 97 1011.7
20260906110625 58 230 0.0 0.0 0.00 0.00 0.00 97 1011.6
20260906110529 58 230 0.0 0.0 0.00 0.00 0.00 96 1011.8
20260906110525 58 230 0.0 0.0 0.00 0.00 0.00 96 1011.7
20260906110424 57 230 0.0 0.0 0.00 0.00 0.00 96 1011.6
20260906110324 57 230 0.0 0.0 0.00 0.00 0.00 96 1011.6
20260906110223 57 230 0.0 0.0 0.00 0.00 0.00 96 1011.6
20260906110124 57 230 0.0 0.0 0.00 0.00 0.00 96 1011.6
20260906110029 57 230 0.0 0.0 0.00 0.00 0.00 96 1011.8
20260906110023 57 230 0.0 0.0 0.00 0.00 0.00 96 1011.6
20260906110008 57 230 0.0 0.0 0.00 0.00 0.00 96 1011.6
20260906110004 57 230 0.0 0.0 0.00 0.00 0.00 96 1011.6
20260906110000 57 230 0.0 0.0 0.00 0.00 0.00 96 1011.6
20260906105954 57 230 0.0 0.0 0.00 0.00 0.00 96 1011.6
20260906105727 57 230 0.0 0.0 0.00 0.00 0.00 96 1011.6
20260906105557 57 230 0.0 0.0 0.00 0.00 0.00 96 1011.5
20260906105552 57 230 0.0 0.0 0.00 0.00 0.00 96 1011.6
20260906105529 57 230 0.0 0.0 0.00 0.00 0.00 96 1011.7
20260906105329 57 230 0.0 0.0 0.00 0.00 0.00 96 1011.5
20260906105119 57 230 0.0 0.0 0.00 0.00 0.00 96 1011.5
20260906105044 57 230 0.0 0.0 0.00 0.00 0.00 96 1011.6
20260906105019 57 230 0.0 0.0 0.00 0.00 0.00 96 1011.4
20260906104919 57 230 0.0 0.0 0.00 0.00 0.00 96 1011.4
20260906104818 57 230 0.0 0.0 0.00 0.00 0.00 96 1011.4
20260906104731 57 230 0.0 0.0 0.00 0.00 0.00 96 1011.4
20260906104722 57 230 0.0 0.0 0.00 0.00 0.00 96 1011.4
20260906104529 57 230 0.0 0.0 0.00 0.00 0.00 96 1011.6
20260906104516 57 230 0.0 0.0 0.00 0.00 0.00 96 1011.4
20260906104415 57 230 0.0 0.0 0.00 0.00 0.00 96 1011.4
20260906104348 57 230 0.0 0.0 0.00 0.00 0.00 96 1011.4
20260906104314 57 230 0.0 0.0 0.00 0.00 0.00 96 1011.4
20260906104233 57 230 0.0 0.0 0.00 0.00 0.00 96 1011.4
20260906104112 57 230 0.0 0.0 0.00 0.00 0.00 96 1011.4
20260906104029 57 230 0.0 0.0 0.00 0.00 0.00 96 1011.5
20260906104010 57 230 0.0 0.0 0.00 0.00 0.00 96 1011.3
20260906103910 57 230 0.0 0.0 0.00 0.00 0.00 96 1011.3
20260906103810 57 230 0.0 0.0 0.00 0.00 0.00 96 1011.3
20260906103709 57 230 0.0 0.0 0.00 0.00 0.00 96 1011.3
20260906103608 57 230 0.0 0.0 0.00 0.00 0.00 96 1011.3
20260906103529 57 230 0.0 0.0 0.00 0.00 0.00 96 1011.4
20260906103508 57 230 0.0 0.0 0.00 0.00 0.00 96 1011.3
20260906103408 57 230 0.0 0.0 0.00 0.00 0.00 96 1011.2
20260906103334 57 230 0.0 0.0 0.00 0.00 0.00 96 1011.2
20260906103221 57 230 0.0 0.0 0.00 0.00 0.00 96 1011.2
20260906103212 57 230 0.0 0.0 0.00 0.00 0.00 96 1011.2
20260906103029 57 230 0.0 0.0 0.00 0.00 0.00 96 1011.3
20260906103006 57 230 0.0 0.0 0.00 0.00 0.00 96 1011.1
20260906102905 57 230 0.0 0.0 0.00 0.00 0.00 96 1011.1
20260906102842 57 230 0.0 0.0 0.00 0.00 0.00 96 1011.1
20260906102805 57 230 0.0 0.0 0.00 0.00 0.00 96 1011.1
20260906102730 57 230 0.0 0.0 0.00 0.00 0.00 96 1011.1
20260906102604 57 230 0.0 0.0 0.00 0.00 0.00 96 1011.1
20260906102529 57 230 0.0 0.0 0.00 0.00 0.00 96 1011.3
20260906102515 57 230 0.0 0.0 0.00 0.00 0.00 96 1011.1
20260906102512 57 230 0.0 0.0 0.00 0.00 0.00 96 1011.1
20260906102305 57 230 0.0 0.0 0.00 0.00 0.00 96 1011.1
20260906102202 57 230 0.0 0.0 0.00 0.00 0.00 96 1011.1
20260906102122 57 230 0.0 0.0 0.00 0.00 0.00 96 1011.1
20260906102114 57 230 0.0 0.0 0.00 0.00 0.00 96 1011.2
20260906102110 57 230 0.0 0.0 0.00 0.00 0.00 96 1011.1
20260906102029 57 230 0.0 0.0 0.00 0.00 0.00 96 1011.4
20260906101914 57 230 0.0 0.0 0.00 0.00 0.00 96 1011.1
20260906101910 57 230 0.0 0.0 0.00 0.00 0.00 96 1011.1
20260906101700 57 230 0.0 0.0 0.00 0.00 0.00 96 1011.2
20260906101620 57 230 0.0 0.0 0.00 0.00 0.00 96 1011.2
20260906101613 57 230 0.0 0.0 0.00 0.00 0.00 96 1011.1
20260906101608 57 230 0.0 0.0 0.00 0.00 0.00 96 1011.1
20260906101529 57 230 0.0 0.0 0.00 0.00 0.00 96 1011.3
20260906101400 57 230 0.0 0.0 0.00 0.00 0.00 96 1011.1
20260906101259 57 230 0.0 0.0 0.00 0.00 0.00 96 1011.1
20260906101158 57 230 0.0 0.0 0.00 0.00 0.00 96 1011.1
20260906101118 57 230 0.0 0.0 0.00 0.00 0.00 96 1011.1
20260906101110 57 230 0.0 0.0 0.00 0.00 0.00 96 1011.1
20260906101106 57 230 0.0 0.0 0.00 0.00 0.00 96 1011.1
20260906101029 57 230 0.0 0.0 0.00 0.00 0.00 96 1011.3
20260906100857 57 230 0.0 0.0 0.00 0.00 0.00 96 1011.1
20260906100840 57 230 0.0 0.0 0.00 0.00 0.00 96 1011.0
20260906100835 57 230 0.0 0.0 0.00 0.00 0.00 96 1011.0
20260906100556 57 230 0.0 0.0 0.00 0.00 0.00 96 1011.1
20260906100529 57 230 0.0 0.0 0.00 0.00 0.00 96 1011.2
20260906100503 57 230 0.0 0.0 0.00 0.00 0.00 96 1011.0
20260906100459 57 230 0.0 0.0 0.00 0.00 0.00 96 1011.0
20260906100448 57 230 0.0 0.0 0.00 0.00 0.00 96 1011.0
20260906100442 57 230 0.0 0.0 0.00 0.00 0.00 96 1011.0
20260906100055 57 230 0.0 0.0 0.00 0.00 0.00 96 1010.9
20260906100028 57 230 0.0 0.0 0.00 0.00 0.00 96 1011.0
20260906095954 57 230 0.0 0.0 0.00 0.00 0.00 96 1010.8
20260906095927 57 308 0.0 0.0 0.00 0.00 0.00 96 1010.8
20260906095854 57 230 0.0 0.0 0.00 0.00 0.00 96 1010.9
20260906095822 57 308 0.0 0.0 0.00 0.00 0.00 96 1010.9
20260906095816 57 308 0.0 0.0 0.00 0.00 0.00 96 1010.9
20260906095807 57 308 0.0 0.0 0.00 0.00 0.00 96 1010.8
20260906095529 57 308 0.0 0.0 0.00 0.00 0.00 96 1011.0
20260906095452 57 308 0.0 0.0 0.00 0.00 0.00 96 1010.8
20260906095352 57 308 0.0 0.0 0.00 0.00 0.00 96 1010.8
20260906095305 57 308 0.0 0.0 0.00 0.00 0.00 96 1010.7
20260906095258 57 308 0.0 0.0 0.00 0.00 0.00 96 1010.8
20260906095113 57 308 0.0 0.0 0.00 0.00 0.00 96 1010.7
20260906095049 57 308 0.0 0.0 0.00 0.00 0.00 96 1010.7
20260906095029 57 308 0.0 0.0 0.00 0.00 0.00 96 1010.9
20260906095004 57 308 0.0 0.0 0.00 0.00 0.00 96 1010.7
20260906095000 57 308 0.0 0.0 0.00 0.00 0.00 96 1010.7
20260906094748 57 308 0.0 0.0 0.00 0.00 0.00 96 1010.6
20260906094707 57 308 0.0 0.0 0.00 0.00 0.00 96 1010.6
20260906094556 57 308 0.0 0.0 0.00 0.00 0.00 96 1010.7
20260906094529 57 308 0.0 0.0 0.00 0.00 0.00 96 1010.9
20260906094347 57 308 0.0 0.0 0.00 0.00 0.00 96 1010.7
20260906094328 57 308 0.0 0.0 0.00 0.00 0.00 96 1010.7
20260906094245 57 308 0.0 0.0 0.00 0.00 0.00 96 1010.6
20260906094217 57 308 0.0 0.0 0.00 0.00 0.00 96 1010.7
20260906094058 57 308 0.0 0.0 0.00 0.00 0.00 96 1010.6
20260906094054 57 308 0.0 0.0 0.00 0.00 0.00 96 1010.7
20260906094029 57 308 0.0 0.0 0.00 0.00 0.00 96 1010.8
20260906093844 57 308 0.0 0.0 0.00 0.00 0.00 96 1010.6
20260906093757 57 308 0.0 0.0 0.00 0.00 0.00 96 1010.6
20260906093753 57 308 0.0 0.0 0.00 0.00 0.00 96 1010.7
20260906093608 57 308 0.0 0.0 0.00 0.00 0.00 96 1010.6
20260906093557 57 308 0.0 0.0 0.00 0.00 0.00 96 1010.6
20260906093553 57 308 0.0 0.0 0.00 0.00 0.00 96 1010.6
20260906093529 57 308 0.0 0.0 0.00 0.00 0.00 96 1010.8
20260906093342 57 308 0.0 0.0 0.00 0.00 0.00 96 1010.6
20260906093241 57 308 0.0 0.0 0.00 0.00 0.00 96 1010.5
20260906093159 57 308 0.0 0.0 0.00 0.00 0.00 96 1010.5
20260906093147 57 308 0.0 0.0 0.00 0.00 0.00 96 1010.5
20260906093043 57 308 0.0 0.0 0.00 0.00 0.00 96 1010.7
20260906092941 57 308 0.0 0.0 0.00 0.00 0.00 96 1010.5
20260906092852 57 308 0.0 0.0 0.00 0.00 0.00 96 1010.4
20260906092848 57 308 0.0 0.0 0.00 0.00 0.00 96 1010.4
20260906092639 57 308 0.0 0.0 0.00 0.00 0.00 96 1010.4
20260906092603 57 308 0.0 0.0 0.00 0.00 0.00 96 1010.4
20260906092538 57 308 0.0 0.0 0.00 0.00 0.00 96 1010.3
20260906092529 57 308 0.0 0.0 0.00 0.00 0.00 96 1010.5
20260906092438 57 308 0.0 0.0 0.00 0.00 0.00 96 1010.3
20260906092337 57 308 0.0 0.0 0.00 0.00 0.00 96 1010.3
20260906092237 57 308 0.0 0.0 0.00 0.00 0.00 96 1010.4
20260906092136 57 308 0.0 0.0 0.00 0.00 0.00 96 1010.3
20260906092102 57 308 0.0 0.0 0.00 0.00 0.00 96 1010.3
20260906092036 57 308 0.0 0.0 0.00 0.00 0.00 96 1010.3
20260906092029 57 308 0.0 0.0 0.00 0.00 0.00 96 1010.5
20260906091936 57 308 0.0 0.0 0.00 0.00 0.00 96 1010.3
20260906091836 57 308 0.0 0.0 0.00 0.00 0.00 96 1010.2
20260906091830 57 308 0.0 0.0 0.00 0.00 0.00 96 1010.3
20260906091824 57 308 0.0 0.0 0.00 0.00 0.00 96 1010.2
20260906091819 57 308 0.0 0.0 0.00 0.00 0.00 96 1010.2
20260906091533 57 308 0.0 0.0 0.00 0.00 0.00 96 1010.2
20260906091529 57 308 0.0 0.0 0.00 0.00 0.00 96 1010.4
20260906091432 57 308 0.0 0.0 0.00 0.00 0.00 96 1010.2
20260906091344 57 308 0.0 0.0 0.00 0.00 0.00 96 1010.2
20260906091340 57 308 0.0 0.0 0.00 0.00 0.00 96 1010.2
20260906091131 57 308 0.0 0.0 0.00 0.00 0.00 96 1010.1
20260906091101 57 308 0.0 0.0 0.00 0.00 0.00 96 1010.1
20260906091029 57 308 0.0 0.0 0.00 0.00 0.00 96 1010.3
20260906090928 57 308 0.0 0.0 0.00 0.00 0.00 96 1010.1
20260906090828 57 308 0.0 0.0 0.00 0.00 0.00 96 1010.1
20260906090741 58 308 0.0 0.0 0.00 0.00 0.00 96 1010.1
20260906090737 58 308 0.0 0.0 0.00 0.00 0.00 96 1010.1
20260906090559 58 308 0.0 0.0 0.00 0.00 0.00 96 1010.1
20260906090529 58 308 0.0 0.0 0.00 0.00 0.00 96 1010.4
20260906090527 58 308 0.0 0.0 0.00 0.00 0.00 96 1010.1
20260906090426 58 308 0.0 0.0 0.00 0.00 0.00 96 1010.1
20260906090238 58 308 0.0 0.0 0.00 0.00 0.00 96 1010.0
20260906090233 58 308 0.0 0.0 0.00 0.00 0.00 96 1010.1
20260906090057 58 308 0.0 0.0 0.00 0.00 0.00 96 1010.0
20260906090029 58 308 0.0 0.0 0.00 0.00 0.00 96 1010.3
20260906090024 58 308 0.0 0.0 0.00 0.00 0.00 96 1010.0
20260906085923 58 308 0.0 0.0 0.00 0.00 0.00 96 1010.0
20260906085835 58 308 0.0 0.0 0.00 0.00 0.00 96 1010.1
20260906085830 58 308 0.0 0.0 0.00 0.00 0.00 96 1010.0
20260906085621 58 308 0.0 0.0 0.00 0.00 0.00 96 1010.0
20260906085533 58 308 0.0 0.0 0.00 0.00 0.00 96 1010.0
20260906085529 58 308 0.0 0.0 0.00 0.00 0.00 96 1010.1
20260906085319 58 308 0.0 0.0 0.00 0.00 0.00 96 1010.0
20260906085219 58 308 0.0 0.0 0.00 0.00 0.00 96 1010.0
20260906085117 58 308 0.0 0.0 0.00 0.00 0.00 96 1010.0
20260906085057 58 308 0.0 0.0 0.00 0.00 0.00 96 1010.0
20260906085029 58 308 0.0 0.0 0.00 0.00 0.00 96 1010.4
20260906085017 58 308 0.0 0.0 0.00 0.00 0.00 96 1010.0
20260906084917 58 308 0.0 0.0 0.00 0.00 0.00 96 1010.1
20260906084817 58 308 0.0 0.0 0.00 0.00 0.00 96 1010.1
20260906084717 58 308 0.0 0.0 0.00 0.00 0.00 96 1010.0
20260906084630 58 308 0.0 0.0 0.00 0.00 0.00 96 1010.0
20260906084622 58 308 0.0 0.0 0.00 0.00 0.00 96 1010.1
20260906084528 58 308 0.0 0.0 0.00 0.00 0.00 96 1010.4
20260906084415 58 308 0.0 0.0 0.00 0.00 0.00 96 1010.1
20260906084315 58 308 0.0 0.0 0.00 0.00 0.00 96 1010.1
20260906084214 58 308 0.0 0.0 0.00 0.00 0.00 96 1010.1
20260906084128 58 308 0.0 0.0 0.00 0.00 0.00 96 1010.1
20260906084120 58 308 0.0 0.0 0.00 0.00 0.00 96 1010.1
20260906084029 58 308 0.0 0.0 0.00 0.00 0.00 96 1010.4
20260906083913 58 308 0.0 0.0 0.00 0.00 0.00 96 1010.1
20260906083810 58 308 0.0 0.0 0.00 0.00 0.00 96 1010.1
20260906083711 58 308 0.0 0.0 0.00 0.00 0.00 96 1010.1
20260906083611 58 308 0.0 0.0 0.00 0.00 0.00 96 1010.1
20260906083554 58 308 0.0 0.0 0.00 0.00 0.00 96 1010.1
20260906083529 58 308 0.0 0.0 0.00 0.00 0.00 96 1010.4
20260906083509 58 308 0.0 0.0 0.00 0.00 0.00 96 1010.1
20260906083409 58 308 0.0 0.0 0.00 0.00 0.00 96 1010.1
20260906083310 58 308 0.0 0.0 0.00 0.00 0.00 96 1010.1
20260906083209 58 308 0.0 0.0 0.00 0.00 0.00 96 1010.1
20260906083109 58 308 0.0 0.0 0.00 0.00 0.00 96 1010.1
20260906083057 58 308 0.0 0.0 0.00 0.00 0.00 96 1010.1
20260906083029 58 308 0.0 0.0 0.00 0.00 0.00 96 1010.3
20260906083019 58 308 0.0 0.0 0.00 0.00 0.00 95 1010.0
20260906083015 58 308 0.0 0.0 0.00 0.00 0.00 96 1010.1
20260906082818 58 308 0.0 0.0 0.00 0.00 0.00 95 1010.0
20260906082814 58 308 0.0 0.0 0.00 0.00 0.00 95 1010.0
20260906082604 58 308 0.0 0.0 0.00 0.00 0.00 95 1010.0
20260906082553 58 308 0.0 0.0 0.00 0.00 0.00 95 1009.9
20260906082529 58 308 0.0 0.0 0.00 0.00 0.00 95 1010.2
20260906082504 58 308 0.0 0.0 0.00 0.00 0.00 95 1010.0
20260906082404 58 308 0.0 0.0 0.00 0.00 0.00 95 1009.9
20260906082305 58 308 0.0 0.0 0.00 0.00 0.00 95 1009.9
20260906082203 58 308 0.0 0.0 0.00 0.00 0.00 95 1009.9
20260906082059 58 308 0.0 0.0 0.00 0.00 0.00 95 1010.2
20260906082053 58 308 0.0 0.0 0.00 0.00 0.00 95 1009.9
20260906082033 58 308 0.0 0.0 0.00 0.00 0.00 95 1010.0
20260906082029 58 308 0.0 0.0 0.00 0.00 0.00 95 1010.0
20260906082025 58 308 0.0 0.0 0.00 0.00 0.00 95 1010.0
20260906082019 58 308 0.0 0.0 0.00 0.00 0.00 95 1010.0
20260906081708 58 308 0.0 0.0 0.00 0.00 0.00 95 1009.9
20260906081659 58 308 0.0 0.0 0.00 0.00 0.00 95 1010.0
20260906081529 58 308 0.0 0.0 0.00 0.00 0.00 95 1010.2
20260906081457 58 308 0.0 0.0 0.00 0.00 0.00 95 1010.0
20260906081357 58 308 0.0 0.0 0.00 0.00 0.00 95 1010.0
20260906081256 58 308 0.0 0.0 0.00 0.00 0.00 95 1010.0
20260906081156 58 308 0.0 0.0 0.00 0.00 0.00 95 1010.0
20260906081115 58 308 0.0 0.0 0.00 0.00 0.00 95 1010.0
20260906081103 58 308 0.0 0.0 0.00 0.00 0.00 95 1010.0
20260906081028 58 308 0.0 0.0 0.00 0.00 0.00 95 1010.2
20260906080855 58 308 0.0 0.0 0.00 0.00 0.00 95 1010.0
20260906080755 58 308 0.0 0.0 0.00 0.00 0.00 95 1010.0
20260906080725 58 308 0.0 0.0 0.00 0.00 0.00 95 1010.0
20260906080721 58 308 0.0 0.0 0.00 0.00 0.00 95 1010.0
20260906080715 58 308 0.0 0.0 0.00 0.00 0.00 95 1010.0
20260906080559 58 308 0.0 0.0 0.00 0.00 0.00 95 1010.0
20260906080529 58 308 0.0 0.0 0.00 0.00 0.00 95 1010.2
20260906080351 58 308 0.0 0.0 0.00 0.00 0.00 95 1009.9
20260906080311 58 308 0.0 0.0 0.00 0.00 0.00 95 1010.0
20260906080250 58 308 0.0 0.0 0.00 0.00 0.00 95 1010.0
20260906080204 58 308 0.0 0.0 0.00 0.00 0.00 95 1009.9
20260906080155 58 308 0.0 0.0 0.00 0.00 0.00 95 1010.0
20260906080029 58 308 0.0 0.0 0.00 0.00 0.00 95 1010.1
20260906075949 58 308 0.0 0.0 0.00 0.00 0.00 95 1009.9
20260906075847 58 308 0.0 0.0 0.00 0.00 0.00 95 1009.9
20260906075746 58 308 0.0 0.0 0.00 0.00 0.00 95 1009.9
20260906075645 58 308 0.0 0.0 0.00 0.00 0.00 95 1009.9
20260906075545 58 308 0.0 0.0 0.00 0.00 0.00 95 1009.9
20260906075529 58 308 0.0 0.0 0.00 0.00 0.00 95 1010.2
20260906075444 58 308 0.0 0.0 0.00 0.00 0.00 95 1010.0
20260906075344 58 308 0.0 0.0 0.00 0.00 0.00 95 1009.9
20260906075244 58 308 0.0 0.0 0.00 0.00 0.00 95 1010.0
20260906075143 58 308 0.0 0.0 0.00 0.00 0.00 95 1010.0
20260906075102 58 308 0.0 0.0 0.00 0.00 0.00 95 1009.9
20260906075052 58 308 0.0 0.0 0.00 0.00 0.00 95 1010.0
20260906075029 58 308 0.0 0.0 0.00 0.00 0.00 95 1010.1
20260906074855 58 308 0.0 0.0 0.00 0.00 0.00 95 1010.0
20260906074851 58 308 0.0 0.0 0.00 0.00 0.00 95 1010.0
20260906074641 58 308 0.0 0.0 0.00 0.00 0.00 95 1010.0
20260906074544 58 308 0.0 0.0 0.00 0.00 0.00 95 1010.2
20260906074541 58 308 0.0 0.0 0.00 0.00 0.00 95 1010.0
20260906074439 58 308 0.0 0.0 0.00 0.00 0.00 95 1010.0
20260906074338 58 308 0.0 0.0 0.00 0.00 0.00 95 1010.0
20260906074238 58 308 0.0 0.0 0.00 0.00 0.00 95 1010.0
20260906074138 58 308 0.0 0.0 0.00 0.00 0.00 95 1009.9
20260906074037 58 308 0.0 0.0 0.00 0.00 0.00 95 1010.0
20260906074029 58 308 0.0 0.0 0.00 0.00 0.00 95 1010.2
20260906073936 58 308 0.0 0.0 0.00 0.00 0.00 95 1010.0
20260906073836 58 308 0.0 0.0 0.00 0.00 0.00 95 1010.0
20260906073736 58 308 0.0 0.0 0.00 0.00 0.00 95 1010.0
20260906073636 58 308 0.0 0.0 0.00 0.00 0.00 95 1010.0
20260906073536 58 308 0.0 0.0 0.00 0.00 0.00 95 1010.0
20260906073529 58 308 0.0 0.0 0.00 0.00 0.00 95 1010.2
20260906073436 58 308 0.0 0.0 0.00 0.00 0.00 95 1010.0
20260906073334 58 308 0.0 0.0 0.00 0.00 0.00 95 1009.9
20260906073248 58 308 0.0 0.0 0.00 0.00 0.00 95 1010.0
20260906073244 58 308 0.0 0.0 0.00 0.00 0.00 95 1009.9
20260906073033 58 308 0.0 0.0 0.00 0.00 0.00 95 1010.0
20260906073029 58 308 0.0 0.0 0.00 0.00 0.00 95 1010.2
20260906072932 58 308 0.0 0.0 0.00 0.00 0.00 95 1010.0
20260906072832 58 308 0.0 0.0 0.00 0.00 0.00 95 1009.9
20260906072731 58 308 0.0 0.0 0.00 0.00 0.00 95 1010.0
20260906072629 58 308 0.0 0.0 0.00 0.00 0.00 95 1010.0
20260906072529 58 308 0.0 0.0 0.00 0.00 0.00 95 1010.2
20260906072428 58 308 0.0 0.0 0.00 0.00 0.00 95 1010.0
20260906072328 58 308 0.0 0.0 0.00 0.00 0.00 95 1010.0
20260906072240 58 308 0.0 0.0 0.00 0.00 0.00 95 1010.0
20260906072236 58 308 0.0 0.0 0.00 0.00 0.00 95 1010.0
20260906072029 58 308 0.0 0.0 0.00 0.00 0.00 95 1010.1
20260906072026 58 308 0.0 0.0 0.00 0.00 0.00 95 1009.9
20260906071926 58 308 0.0 0.0 0.00 0.00 0.00 95 1009.9
20260906071826 58 308 0.0 0.0 0.00 0.00 0.00 95 1009.9
20260906071757 58 308 0.0 0.0 0.00 0.00 0.00 95 1009.9
20260906071725 58 308 0.0 0.0 0.00 0.00 0.00 95 1009.9
20260906071644 58 308 0.0 0.0 0.00 0.00 0.00 95 1009.9
20260906071528 59 308 0.0 0.0 0.00 0.00 0.00 95 1010.1
20260906071524 58 308 0.0 0.0 0.00 0.00 0.00 95 1009.9
20260906071424 58 308 0.0 0.0 0.00 0.00 0.00 95 1009.9
20260906071324 58 308 0.0 0.0 0.00 0.00 0.00 95 1009.9
20260906071223 58 308 0.0 0.0 0.00 0.00 0.00 95 1009.9
20260906071123 58 308 0.0 0.0 0.00 0.00 0.00 95 1009.9
20260906071058 59 308 0.0 0.0 0.00 0.00 0.00 95 1010.1
20260906071042 59 308 0.0 0.0 0.00 0.00 0.00 95 1009.9
20260906071031 59 308 0.0 0.0 0.00 0.00 0.00 95 1009.9
20260906070821 59 308 0.0 0.0 0.00 0.00 0.00 95 1009.9
20260906070721 59 308 0.0 0.0 0.00 0.00 0.00 95 1009.8
20260906070647 59 308 0.0 0.0 0.00 0.00 0.00 95 1009.9
20260906070529 59 308 0.0 0.0 0.00 0.00 0.00 95 1010.1
20260906070332 59 308 0.0 0.0 0.00 0.00 0.00 95 1009.9
20260906070328 59 308 0.0 0.0 0.00 0.00 0.00 95 1009.9
20260906070133 59 308 0.0 0.0 0.00 0.00 0.00 95 1009.9
20260906070124 59 308 0.0 0.0 0.00 0.00 0.00 95 1009.9
20260906070029 59 308 0.0 0.0 0.00 0.00 0.00 95 1010.1
20260906065930 59 308 0.0 0.0 0.00 0.00 0.00 95 1009.8
20260906065925 59 308 0.0 0.0 0.00 0.00 0.00 95 1009.9
20260906065716 59 308 0.0 0.0 0.00 0.00 0.00 95 1009.8
20260906065616 59 308 0.0 0.0 0.00 0.00 0.00 95 1009.8
20260906065514 59 308 0.0 0.0 0.00 0.00 0.00 95 1009.9
20260906065414 59 308 0.0 0.0 0.00 0.00 0.00 95 1009.9
20260906065400 59 308 0.0 0.0 0.00 0.00 0.00 95 1010.0
20260906065213 59 308 0.0 0.0 0.00 0.00 0.00 95 1009.9
20260906065138 59 308 0.0 0.0 0.00 0.00 0.00 95 1010.0
20260906065029 59 308 0.0 0.0 0.00 0.00 0.00 95 1010.2
20260906065012 59 308 0.0 0.0 0.00 0.00 0.00 95 1010.0
20260906064924 59 308 0.0 0.0 0.00 0.00 0.00 95 1010.0
20260906064920 59 308 0.0 0.0 0.00 0.00 0.00 95 1010.0
20260906064711 59 308 0.0 0.0 0.00 0.00 0.00 95 1010.0
20260906064610 59 308 0.0 0.0 0.00 0.00 0.00 95 1010.0
20260906064529 59 308 0.0 0.0 0.00 0.00 0.00 95 1010.1
20260906064510 59 308 0.0 0.0 0.00 0.00 0.00 95 1010.0
20260906064409 59 308 0.0 0.0 0.00 0.00 0.00 95 1009.9
20260906064309 59 308 0.0 0.0 0.00 0.00 0.00 95 1010.0
20260906064209 59 308 0.0 0.0 0.00 0.00 0.00 95 1010.0
20260906064108 59 308 0.0 0.0 0.00 0.00 0.00 95 1009.9
20260906064044 59 308 0.0 0.0 0.00 0.00 0.00 95 1010.1
20260906064008 59 308 0.0 0.0 0.00 0.00 0.00 95 1009.9
20260906063908 59 308 0.0 0.0 0.00 0.00 0.00 95 1009.9
20260906063807 59 308 0.0 0.0 0.00 0.00 0.00 95 1009.9
20260906063707 59 308 0.0 0.0 0.00 0.00 0.00 95 1009.9
20260906063607 59 308 0.0 0.0 0.00 0.00 0.00 95 1009.9
20260906063544 59 308 0.0 0.0 0.00 0.00 0.00 95 1010.1
20260906063521 59 308 0.0 0.0 0.00 0.00 0.00 95 1009.9
20260906063516 59 308 0.0 0.0 0.00 0.00 0.00 95 1009.9
20260906063306 59 308 0.0 0.0 0.00 0.00 0.00 95 1009.9
20260906063206 59 308 0.0 0.0 0.00 0.00 0.00 95 1009.9
20260906063105 59 308 0.0 0.0 0.00 0.00 0.00 95 1009.9
20260906063029 59 308 0.0 0.0 0.00 0.00 0.00 95 1010.1
20260906063005 59 308 0.0 0.0 0.00 0.00 0.00 95 1009.9
20260906062905 59 308 0.0 0.0 0.00 0.00 0.00 95 1009.9
20260906062804 59 308 0.0 0.0 0.00 0.00 0.00 95 1009.9
20260906062704 59 308 0.0 0.0 0.00 0.00 0.00 95 1010.0
20260906062603 59 308 0.0 0.0 0.00 0.00 0.00 95 1010.0
20260906062529 59 308 0.0 0.0 0.00 0.00 0.00 95 1010.1
20260906062519 59 308 0.0 0.0 0.00 0.00 0.00 95 1010.0
20260906062503 59 308 0.0 0.0 0.00 0.00 0.00 95 1009.9
20260906062402 59 308 0.0 0.0 0.00 0.00 0.00 95 1010.0
20260906062301 59 308 0.0 0.0 0.00 0.00 0.00 95 1009.9
20260906062202 59 308 0.0 0.0 0.00 0.00 0.00 95 1010.0
20260906062121 59 308 0.0 0.0 0.00 0.00 0.00 95 1009.9
20260906062107 59 308 0.0 0.0 0.00 0.00 0.00 95 1010.0
20260906062029 59 308 0.0 0.0 0.00 0.00 0.00 95 1010.1
20260906061900 59 308 0.0 0.0 0.00 0.00 0.00 95 1010.0
20260906061800 59 308 0.0 0.0 0.00 0.00 0.00 95 1010.0
20260906061713 59 308 0.0 0.0 0.00 0.00 0.00 95 1010.0
20260906061708 59 308 0.0 0.0 0.00 0.00 0.00 95 1010.0
20260906061529 59 308 0.0 0.0 0.00 0.00 0.00 95 1010.2
20260906061519 59 308 0.0 0.0 0.00 0.00 0.00 95 1010.0
20260906061459 59 308 0.0 0.0 0.00 0.00 0.00 95 1010.0
20260906061359 59 308 0.0 0.0 0.00 0.00 0.00 95 1010.0
20260906061257 59 308 0.0 0.0 0.00 0.00 0.00 95 1010.0
20260906061155 59 308 0.0 0.0 0.00 0.00 0.00 95 1010.0
20260906061055 59 308 0.0 0.0 0.00 0.00 0.00 95 1010.0
20260906061044 59 308 0.0 0.0 0.00 0.00 0.00 95 1010.3
20260906061018 59 308 0.0 0.0 0.00 0.00 0.00 95 1010.0
20260906060954 59 308 0.0 0.0 0.00 0.00 0.00 95 1010.1
20260906060854 59 308 0.0 0.0 0.00 0.00 0.00 94 1010.1
20260906060755 59 308 0.0 0.0 0.00 0.00 0.00 94 1010.2
20260906060655 59 308 0.0 0.0 0.00 0.00 0.00 94 1010.1
20260906060555 59 308 0.0 0.0 0.00 0.00 0.00 94 1010.2
20260906060544 59 308 0.0 0.0 0.00 0.00 0.00 94 1010.4
20260906060516 59 308 0.0 0.0 0.00 0.00 0.00 94 1010.2
20260906060454 59 308 0.0 0.0 0.00 0.00 0.00 94 1010.2
20260906060353 59 308 0.0 0.0 0.00 0.00 0.00 94 1010.1
20260906060253 59 308 0.0 0.0 0.00 0.00 0.00 94 1010.2
20260906060238 59 308 0.0 0.0 0.00 0.00 0.00 94 1010.2
20260906060153 59 308 0.0 0.0 0.00 0.00 0.00 94 1010.2
20260906060122 59 308 0.0 0.0 0.00 0.00 0.00 94 1010.2
20260906060029 59 308 0.0 0.0 0.00 0.00 0.00 94 1010.4
20260906055952 59 308 0.0 0.0 0.00 0.00 0.00 94 1010.2
20260906055850 59 308 0.0 0.0 0.00 0.00 0.00 94 1010.2
20260906055750 59 308 0.0 0.0 0.00 0.00 0.00 95 1010.2
20260906055716 60 308 0.0 0.0 0.00 0.00 0.00 95 1010.2
20260906055555 60 308 0.0 0.0 0.00 0.00 0.00 95 1010.2
20260906055529 60 308 0.0 0.0 0.00 0.00 0.00 95 1010.4
20260906055348 60 308 0.0 0.0 0.00 0.00 0.00 95 1010.2
20260906055248 60 308 0.0 0.0 0.00 0.00 0.00 95 1010.2
20260906055147 60 308 0.0 0.0 0.00 0.00 0.00 95 1010.2
20260906055047 60 308 0.0 0.0 0.00 0.00 0.00 95 1010.2
20260906055028 60 308 0.0 0.0 0.00 0.00 0.00 95 1010.4
20260906055012 60 308 0.0 0.0 0.00 0.00 0.00 95 1010.2
20260906054946 60 308 0.0 0.0 0.00 0.00 0.00 95 1010.2
20260906054846 60 308 0.0 0.0 0.00 0.00 0.00 95 1010.2
20260906054746 60 308 0.0 0.0 0.00 0.00 0.00 95 1010.2
20260906054735 60 308 0.0 0.0 0.00 0.00 0.00 95 1010.2
20260906054645 60 308 0.0 0.0 0.00 0.00 0.00 95 1010.2
20260906054620 60 308 0.0 0.0 0.00 0.00 0.00 95 1010.2
20260906054529 60 308 0.0 0.0 0.00 0.00 0.00 95 1010.5
20260906054446 60 308 0.0 0.0 0.00 0.00 0.00 95 1010.3
20260906054346 60 308 0.0 0.0 0.00 0.00 0.00 95 1010.3
20260906054245 60 308 0.0 0.0 0.00 0.00 0.00 95 1010.2
20260906054144 60 308 0.0 0.0 0.00 0.00 0.00 95 1010.3
20260906054103 60 308 0.0 0.0 0.00 0.00 0.00 95 1010.3
20260906054058 60 308 0.0 0.0 0.00 0.00 0.00 94 1010.3
20260906054050 60 308 0.0 0.0 0.00 0.00 0.00 95 1010.3
20260906054029 60 308 0.0 0.0 0.00 0.00 0.00 95 1010.5
20260906053843 60 308 0.0 0.0 0.00 0.00 0.00 95 1010.3
20260906053743 60 308 0.0 0.0 0.00 0.00 0.00 95 1010.3
20260906053642 60 308 0.0 0.0 0.00 0.00 0.00 94 1010.4
20260906053629 60 308 0.0 0.0 0.00 0.00 0.00 94 1010.6
20260906053542 60 308 0.0 0.0 0.00 0.00 0.00 94 1010.3
20260906053510 60 308 0.0 0.0 0.00 0.00 0.00 94 1010.3
20260906053442 60 308 0.0 0.0 0.00 0.00 0.00 94 1010.4
20260906053341 60 308 0.0 0.0 0.00 0.00 0.00 94 1010.4
20260906053240 60 308 0.0 0.0 0.00 0.00 0.00 94 1010.5
20260906053140 60 308 0.0 0.0 0.00 0.00 0.00 94 1010.5
20260906053029 60 308 0.0 0.0 0.00 0.00 0.00 94 1010.7
20260906053009 60 308 0.0 0.0 0.00 0.00 0.00 94 1010.5
20260906052958 60 308 0.0 0.0 0.00 0.00 0.00 94 1010.5
20260906052845 60 308 0.0 0.0 0.00 0.00 0.00 94 1010.4
20260906052635 60 308 0.0 0.0 0.00 0.00 0.00 94 1010.5
20260906052529 60 308 0.0 0.0 0.00 0.00 0.00 94 1010.7
20260906052507 60 308 0.0 0.0 0.00 0.00 0.00 94 1010.4
20260906052435 60 308 0.0 0.0 0.00 0.00 0.00 94 1010.5
20260906052335 60 308 0.0 0.0 0.00 0.00 0.00 94 1010.4
20260906052252 60 308 0.0 0.0 0.00 0.00 0.00 94 1010.4
20260906052248 60 308 0.0 0.0 0.00 0.00 0.00 94 1010.4
20260906052242 60 308 0.0 0.0 0.00 0.00 0.00 94 1010.4
20260906052114 60 308 0.0 0.0 0.00 0.00 0.00 94 1010.4
20260906052029 60 308 0.0 0.0 0.00 0.00 0.00 94 1010.5
20260906051934 60 308 0.0 0.0 0.00 0.00 0.00 94 1010.3
20260906051858 60 308 0.0 0.0 0.00 0.00 0.00 94 1010.4
20260906051853 60 308 0.0 0.0 0.00 0.00 0.00 94 1010.4
20260906051740 60 308 0.0 0.0 0.00 0.00 0.00 94 1010.4
20260906051613 60 308 0.0 0.0 0.00 0.00 0.00 94 1010.4
20260906051529 60 308 0.0 0.0 0.00 0.00 0.00 94 1010.6
20260906051430 60 308 0.0 0.0 0.00 0.00 0.00 94 1010.4
20260906051329 60 308 0.0 0.0 0.00 0.00 0.00 94 1010.4
20260906051229 60 308 0.0 0.0 0.00 0.00 0.00 94 1010.4
20260906051129 60 308 0.0 0.0 0.00 0.00 0.00 94 1010.4
20260906051029 60 308 0.0 0.0 0.00 0.00 0.00 94 1010.6
20260906051005 60 308 0.0 0.0 0.00 0.00 0.00 94 1010.4
20260906050928 60 308 0.0 0.0 0.00 0.00 0.00 94 1010.4
20260906050827 60 308 0.0 0.0 0.00 0.00 0.00 94 1010.4
20260906050741 60 308 0.0 0.0 0.00 0.00 0.00 94 1010.4
20260906050736 60 308 0.0 0.0 0.00 0.00 0.00 94 1010.4
20260906050529 60 308 0.0 0.0 0.00 0.00 0.00 94 1010.6
20260906050503 60 308 0.0 0.0 0.00 0.00 0.00 94 1010.4
20260906050439 60 308 0.0 0.0 0.00 0.00 0.00 94 1010.4
20260906050434 60 308 0.0 0.0 0.00 0.00 0.00 94 1010.4
20260906050225 60 308 0.0 0.0 0.00 0.00 0.00 94 1010.4
20260906050124 60 308 0.0 0.0 0.00 0.00 0.00 94 1010.4
20260906050044 60 308 0.0 0.0 0.00 0.00 0.00 94 1010.6
20260906050031 60 308 0.0 0.0 0.00 0.00 0.00 94 1010.4
20260906045823 60 308 0.0 0.0 0.00 0.00 0.00 94 1010.4
20260906045740 60 308 0.0 0.0 0.00 0.00 0.00 94 1010.3
20260906045731 60 308 0.0 0.0 0.00 0.00 0.00 94 1010.3
20260906045727 60 308 0.0 0.0 0.00 0.00 0.00 94 1010.4
20260906045718 60 308 0.0 0.0 0.00 0.00 0.00 94 1010.3
20260906045529 60 308 0.0 0.0 0.00 0.00 0.00 94 1010.5
20260906045422 60 308 0.0 0.0 0.00 0.00 0.00 94 1010.3
20260906045334 60 308 0.0 0.0 0.00 0.00 0.00 94 1010.3
20260906045330 60 308 0.0 0.0 0.00 0.00 0.00 94 1010.3
20260906045121 60 308 0.0 0.0 0.00 0.00 0.00 94 1010.4
20260906045029 60 308 0.0 0.0 0.00 0.00 0.00 94 1010.6
20260906045020 60 308 0.0 0.0 0.00 0.00 0.00 94 1010.4
20260906045002 60 308 0.0 0.0 0.00 0.00 0.00 94 1010.4
20260906044920 60 308 0.0 0.0 0.00 0.00 0.00 94 1010.4
20260906044819 60 308 0.0 0.0 0.00 0.00 0.00 94 1010.3
20260906044719 60 308 0.0 0.0 0.00 0.00 0.00 94 1010.3
20260906044619 60 308 0.0 0.0 0.00 0.00 0.00 94 1010.3
20260906044529 60 308 0.0 0.0 0.00 0.00 0.00 94 1010.5
20260906044518 60 308 0.0 0.0 0.00 0.00 0.00 94 1010.3
20260906044501 60 308 0.0 0.0 0.00 0.00 0.00 94 1010.3
20260906044419 60 308 0.0 0.0 0.00 0.00 0.00 94 1010.3
20260906044318 60 308 0.0 0.0 0.00 0.00 0.00 94 1010.4
20260906044230 60 308 0.0 0.0 0.00 0.00 0.00 94 1010.4
20260906044226 60 308 0.0 0.0 0.00 0.00 0.00 94 1010.4
20260906044029 60 308 0.0 0.0 0.00 0.00 0.00 94 1010.6
20260906044016 60 308 0.0 0.0 0.00 0.00 0.00 94 1010.4
20260906044000 60 308 0.0 0.0 0.00 0.00 0.00 94 1010.4
20260906043916 60 308 0.0 0.0 0.00 0.00 0.00 94 1010.4
20260906043816 60 308 0.0 0.0 0.00 0.00 0.00 94 1010.4
20260906043715 60 308 0.0 0.0 0.00 0.00 0.00 93 1010.4
20260906043615 60 308 0.0 0.0 0.00 0.00 0.00 93 1010.4
20260906043529 61 308 0.0 0.0 0.00 0.00 0.00 93 1010.6
20260906043514 60 308 0.0 0.0 0.00 0.00 0.00 93 1010.4
20260906043500 60 308 0.0 0.0 0.00 0.00 0.00 93 1010.4
20260906043415 60 308 0.0 0.0 0.00 0.00 0.00 94 1010.4
20260906043315 60 308 0.0 0.0 0.00 0.00 0.00 94 1010.4
20260906043234 61 308 0.0 0.0 0.00 0.00 0.00 94 1010.4
20260906043229 61 308 0.0 0.0 0.00 0.00 0.00 94 1010.3
20260906043225 61 308 0.0 0.0 0.00 0.00 0.00 94 1010.4
20260906043216 61 308 0.0 0.0 0.00 0.00 0.00 94 1010.4
20260906043029 61 308 0.0 0.0 0.00 0.00 0.00 94 1010.5
20260906042913 61 308 0.0 0.0 0.00 0.00 0.00 94 1010.3
20260906042813 61 308 0.0 0.0 0.00 0.00 0.00 94 1010.4
20260906042712 61 308 0.0 0.0 0.00 0.00 0.00 94 1010.3
20260906042612 61 308 0.0 0.0 0.00 0.00 0.00 94 1010.3
20260906042529 61 308 0.0 0.0 0.00 0.00 0.00 94 1010.5
20260906042511 61 308 0.0 0.0 0.00 0.00 0.00 94 1010.3
20260906042459 61 308 0.0 0.0 0.00 0.00 0.00 94 1010.3
20260906042410 61 308 0.0 0.0 0.00 0.00 0.00 93 1010.3
20260906042310 61 308 0.0 0.0 0.00 0.00 0.00 93 1010.3
20260906042208 61 308 0.0 0.0 0.00 0.00 0.00 93 1010.3
20260906042109 61 308 0.0 0.0 0.00 0.00 0.00 93 1010.3
20260906042029 61 308 0.0 0.0 0.00 0.00 0.00 93 1010.5
20260906042008 61 308 0.0 0.0 0.00 0.00 0.00 93 1010.3
20260906041958 61 308 0.0 0.0 0.00 0.00 0.00 93 1010.3
20260906041907 61 308 0.0 0.0 0.00 0.00 0.00 93 1010.3
20260906041807 61 308 0.0 0.0 0.00 0.00 0.00 93 1010.3
20260906041717 61 308 0.0 0.0 0.00 0.00 0.00 93 1010.3
20260906041707 61 308 0.0 0.0 0.00 0.00 0.00 93 1010.3
20260906041613 61 308 0.0 0.0 0.00 0.00 0.00 93 1010.3
20260906041604 61 308 0.0 0.0 0.00 0.00 0.00 93 1010.3
20260906041544 61 308 0.0 0.0 0.00 0.00 0.00 93 1010.5
20260906041406 61 308 0.0 0.0 0.00 0.00 0.00 93 1010.3
20260906041327 61 308 0.0 0.0 0.00 0.00 0.00 93 1010.3
20260906041214 61 308 0.0 0.0 0.00 0.00 0.00 93 1010.3
20260906041029 61 308 0.0 0.0 0.00 0.00 0.00 93 1010.5
20260906041003 61 308 0.0 0.0 0.00 0.00 0.00 93 1010.3
20260906040956 61 308 0.0 0.0 0.00 0.00 0.00 93 1010.3
20260906040904 61 308 0.0 0.0 0.00 0.00 0.00 93 1010.3
20260906040802 61 308 0.0 0.0 0.00 0.00 0.00 93 1010.3
20260906040701 61 308 0.0 0.0 0.00 0.00 0.00 93 1010.3
20260906040601 61 308 0.0 0.0 0.00 0.00 0.00 93 1010.2
20260906040529 61 308 0.0 0.0 0.00 0.00 0.00 93 1010.4
20260906040457 61 308 0.0 0.0 0.00 0.00 0.00 93 1010.2
20260906040413 61 308 0.0 0.0 0.00 0.00 0.00 93 1010.2
20260906040408 61 308 0.0 0.0 0.00 0.00 0.00 93 1010.2
20260906040159 61 308 0.0 0.0 0.00 0.00 0.00 93 1010.2
20260906040059 61 308 0.0 0.0 0.00 0.00 0.00 93 1010.2
20260906040029 61 308 0.0 0.0 0.00 0.00 0.00 93 1010.4
20260906035955 61 308 0.0 0.0 0.00 0.00 0.00 93 1010.2
20260906035857 61 308 0.0 0.0 0.00 0.00 0.00 93 1010.2
20260906035757 61 308 0.0 0.0 0.00 0.00 0.00 93 1010.2
20260906035656 61 308 0.0 0.0 0.00 0.00 0.00 93 1010.2
20260906035556 61 308 0.0 0.0 0.00 0.00 0.00 93 1010.2
20260906035529 61 308 0.0 0.0 0.00 0.00 0.00 93 1010.4
20260906035457 61 308 0.0 0.0 0.00 0.00 0.00 93 1010.2
20260906035355 61 308 0.0 0.0 0.00 0.00 0.00 93 1010.2
20260906035255 61 308 0.0 0.0 0.00 0.00 0.00 93 1010.2
20260906035154 61 308 0.0 0.0 0.00 0.00 0.00 93 1010.1
20260906035054 61 308 0.0 0.0 0.00 0.00 0.00 93 1010.1
20260906035029 61 308 0.0 0.0 0.00 0.00 0.00 93 1010.3
20260906034954 61 308 0.0 0.0 0.00 0.00 0.00 93 1010.1
20260906034853 61 308 0.0 0.0 0.00 0.00 0.00 93 1010.1
20260906034806 61 308 0.0 0.0 0.00 0.00 0.00 93 1010.1
20260906034802 61 308 0.0 0.0 0.00 0.00 0.00 93 1010.1
20260906034552 61 308 0.0 0.0 0.00 0.00 0.00 93 1010.0
20260906034529 61 308 0.0 0.0 0.00 0.00 0.00 93 1010.2
20260906034452 61 308 0.0 0.0 0.00 0.00 0.00 93 1010.0
20260906034413 61 308 0.0 0.0 0.00 0.00 0.00 93 1010.0
20260906034300 61 308 0.0 0.0 0.00 0.00 0.00 93 1010.0
20260906034125 61 308 0.0 0.0 0.00 0.00 0.00 92 1010.0
20260906034116 61 308 0.0 0.0 0.00 0.00 0.00 92 1010.0
20260906034029 61 308 0.0 0.0 0.00 0.00 0.00 92 1010.2
20260906033857 61 308 0.0 0.0 0.00 0.00 0.00 92 1010.0
20260906033648 62 308 0.0 0.0 0.00 0.00 0.00 92 1010.1
20260906033547 62 308 0.0 0.0 0.00 0.00 0.00 92 1010.0
20260906033544 62 308 0.0 0.0 0.00 0.00 0.00 92 1010.2
20260906033447 62 308 0.0 0.0 0.00 0.00 0.00 92 1010.0
20260906033348 62 308 0.0 0.0 0.00 0.00 0.00 92 1010.1
20260906033309 62 308 0.0 0.0 0.00 0.00 0.00 92 1010.0
20260906033156 62 308 0.0 0.0 0.00 0.00 0.00 93 1010.0
20260906033029 62 308 0.0 0.0 0.00 0.00 0.00 93 1010.2
20260906032947 62 308 0.0 0.0 0.00 0.00 0.00 93 1010.0
20260906032846 62 308 0.0 0.0 0.00 0.00 0.00 92 1010.0
20260906032746 62 308 0.0 0.0 0.00 0.00 0.00 92 1010.1
20260906032647 62 308 0.0 0.0 0.00 0.00 0.00 92 1010.1
20260906032547 62 308 0.0 0.0 0.00 0.00 0.00 92 1010.1
20260906032544 62 308 0.0 0.0 0.00 0.00 0.00 92 1010.3
20260906032445 62 308 0.0 0.0 0.00 0.00 0.00 92 1010.1
20260906032345 62 308 0.0 0.0 0.00 0.00 0.00 92 1010.1
20260906032244 62 308 0.0 0.0 0.00 0.00 0.00 92 1010.0
20260906032144 62 308 0.0 0.0 0.00 0.00 0.00 92 1010.0
20260906032045 62 308 0.0 0.0 0.00 0.00 0.00 92 1010.0
20260906032029 62 308 0.0 0.0 0.00 0.00 0.00 92 1010.2
20260906032017 62 308 0.0 0.0 0.00 0.00 0.00 92 1010.0
20260906032013 62 308 0.0 0.0 0.00 0.00 0.00 92 1009.9
20260906032002 62 308 0.0 0.0 0.00 0.00 0.00 92 1010.0
20260906031643 62 308 0.0 0.0 0.00 0.00 0.00 92 1010.0
20260906031544 62 308 0.0 0.0 0.00 0.00 0.00 92 1010.2
20260906031442 62 308 0.0 0.0 0.00 0.00 0.00 92 1010.0
20260906031409 62 308 0.0 0.0 0.00 0.00 0.00 92 1010.0
20260906031405 62 308 0.0 0.0 0.00 0.00 0.00 92 1010.0
20260906031359 62 308 0.0 0.0 0.00 0.00 0.00 92 1010.0
20260906031055 62 308 0.0 0.0 0.00 0.00 0.00 92 1010.0
20260906031045 62 308 0.0 0.0 0.00 0.00 0.00 92 1010.0
20260906031029 62 308 0.0 0.0 0.00 0.00 0.00 92 1010.2
20260906030840 62 308 0.0 0.0 0.00 0.00 0.00 92 1010.0
20260906030739 62 308 0.0 0.0 0.00 0.00 0.00 92 1010.0
20260906030638 62 308 0.0 0.0 0.00 0.00 0.00 92 1010.0
20260906030553 62 308 0.0 0.0 0.00 0.00 0.00 92 1010.0
20260906030544 62 308 0.0 0.0 0.00 0.00 0.00 92 1010.0
20260906030529 62 308 0.0 0.0 0.00 0.00 0.00 92 1010.2
20260906030338 62 308 0.0 0.0 0.00 0.00 0.00 92 1010.0
20260906030236 62 308 0.0 0.0 0.00 0.00 0.00 92 1009.9
20260906030136 62 308 0.0 0.0 0.00 0.00 0.00 92 1009.9
20260906030044 62 308 0.0 0.0 0.00 0.00 0.00 92 1010.1
20260906030036 62 308 0.0 0.0 0.00 0.00 0.00 92 1009.9
20260906025954 62 308 0.0 0.0 0.00 0.00 0.00 92 1009.9
20260906025943 62 308 0.0 0.0 0.00 0.00 0.00 92 1009.9
20260906025731 62 308 0.0 0.0 0.00 0.00 0.00 91 1009.9
20260906025631 62 308 0.0 0.0 0.00 0.00 0.00 91 1009.9
20260906025545 62 308 0.0 0.0 0.00 0.00 0.00 91 1009.9
20260906025537 62 308 0.0 0.0 0.00 0.00 0.00 91 1009.8
20260906025529 63 308 0.0 0.0 0.00 0.00 0.00 91 1010.0
20260906025330 63 308 0.0 0.0 0.00 0.00 0.00 91 1009.8
20260906025316 63 308 0.0 0.0 0.00 0.00 0.00 91 1009.8
20260906025313 63 308 0.0 0.0 0.00 0.00 0.00 91 1009.8
20260906025307 63 308 0.0 0.0 0.00 0.00 0.00 91 1009.8
20260906025302 63 308 0.0 0.0 0.00 0.00 0.00 91 1009.8
20260906025035 63 308 0.0 0.0 0.00 0.00 0.00 91 1009.8
20260906025029 63 308 0.0 0.0 0.00 0.00 0.00 91 1010.0
20260906024829 63 308 0.0 0.0 0.00 0.00 0.00 91 1009.8
20260906024729 63 308 0.0 0.0 0.00 0.00 0.00 91 1009.8
20260906024642 63 308 0.0 0.0 0.00 0.00 0.00 91 1009.8
20260906024637 63 308 0.0 0.0 0.00 0.00 0.00 91 1009.8
20260906024529 63 308 0.0 0.0 0.00 0.00 0.00 91 1010.1
20260906024426 63 308 0.0 0.0 0.00 0.00 0.00 91 1009.9
20260906024326 63 308 0.0 0.0 0.00 0.00 0.00 91 1009.9
20260906024226 63 308 0.0 0.0 0.00 0.00 0.00 91 1009.9
20260906024125 63 308 0.0 0.0 0.00 0.00 0.00 91 1009.9
20260906024029 63 308 0.0 0.0 0.00 0.00 0.00 91 1010.1
20260906024025 63 308 0.0 0.0 0.00 0.00 0.00 91 1009.9
20260906023924 63 308 0.0 0.0 0.00 0.00 0.00 91 1009.9
20260906023824 63 308 0.0 0.0 0.00 0.00 0.00 91 1009.8
20260906023724 63 308 0.0 0.0 0.00 0.00 0.00 91 1009.9
20260906023624 63 308 0.0 0.0 0.00 0.00 0.00 91 1009.8
20260906023530 63 308 0.0 0.0 0.00 0.00 0.00 91 1009.9
20260906023523 63 308 0.0 0.0 0.00 0.00 0.00 91 1009.8
20260906023423 63 308 0.0 0.0 0.00 0.00 0.00 91 1009.7
20260906023323 63 308 0.0 0.0 0.00 0.00 0.00 91 1009.8
20260906023222 63 308 0.0 0.0 0.00 0.00 0.00 91 1009.8
20260906023122 63 308 0.0 0.0 0.00 0.00 0.00 91 1009.7
20260906023029 63 308 0.0 0.0 0.00 0.00 0.00 90 1010.0
20260906023019 63 308 0.0 0.0 0.00 0.00 0.00 90 1009.8
20260906022919 63 308 0.0 0.0 0.00 0.00 0.00 90 1009.8
20260906022819 63 308 0.0 0.0 0.00 0.00 0.00 90 1009.8
20260906022718 63 308 0.0 0.0 0.00 0.00 0.00 90 1009.8
20260906022644 63 308 0.0 0.0 0.00 0.00 0.00 90 1009.8
20260906022531 63 308 0.0 0.0 0.00 0.00 0.00 90 1009.8
20260906022529 63 308 0.0 0.0 0.00 0.00 0.00 90 1010.0
20260906022523 63 308 0.0 0.0 0.00 0.00 0.00 90 1009.8
20260906022316 63 308 0.0 0.0 0.00 0.00 0.00 90 1009.8
20260906022216 63 308 0.0 0.0 0.00 0.00 0.00 90 1009.8
20260906022115 63 308 0.0 0.0 0.00 0.00 0.00 90 1009.8
20260906022029 63 308 0.0 0.0 0.00 0.00 0.00 90 1009.9
20260906022015 63 308 0.0 0.0 0.00 0.00 0.00 90 1009.8
20260906021914 63 308 0.0 0.0 0.00 0.00 0.00 90 1009.7
20260906021829 64 308 0.0 0.0 0.00 0.00 0.00 90 1009.7
20260906021823 63 308 0.0 0.0 0.00 0.00 0.00 90 1009.7
20260906021613 64 308 0.0 0.0 0.00 0.00 0.00 90 1009.7
20260906021532 64 308 0.0 0.0 0.00 0.00 0.00 90 1009.8
20260906021529 64 308 0.0 0.0 0.00 0.00 0.00 90 1009.9
20260906021526 64 308 0.0 0.0 0.00 0.00 0.00 90 1009.7
20260906021519 64 308 0.0 0.0 0.00 0.00 0.00 90 1009.7
20260906021313 64 308 0.0 0.0 0.00 0.00 0.00 90 1009.8
20260906021211 64 308 0.0 0.0 0.00 0.00 0.00 90 1009.9
20260906021111 64 308 0.0 0.0 0.00 0.00 0.00 90 1009.8
20260906021029 64 308 0.0 0.0 0.00 0.00 0.00 90 1009.9
20260906021010 64 308 0.0 0.0 0.00 0.00 0.00 90 1009.8
20260906020909 64 308 0.0 0.0 0.00 0.00 0.00 90 1009.8
20260906020809 64 308 0.0 0.0 0.00 0.00 0.00 89 1009.8
20260906020709 64 308 0.0 0.0 0.00 0.00 0.00 89 1009.9
20260906020659 64 308 0.0 0.0 0.00 0.00 0.00 89 1009.9
20260906020609 64 308 0.0 0.0 0.00 0.00 0.00 89 1009.8
20260906020545 64 308 0.0 0.0 0.00 0.00 0.00 89 1009.9
20260906020529 64 308 0.0 0.0 0.00 0.00 0.00 89 1010.0
20260906020408 64 308 0.0 0.0 0.00 0.00 0.00 89 1009.9
20260906020308 64 308 0.0 0.0 0.00 0.00 0.00 89 1009.9
20260906020208 64 308 0.0 0.0 0.00 0.00 0.00 89 1009.9
20260906020107 64 308 0.0 0.0 0.00 0.00 0.00 89 1009.9
20260906020029 64 308 0.0 0.0 0.00 0.00 0.00 89 1010.0
20260906020020 64 308 0.0 0.0 0.00 0.00 0.00 89 1009.9
20260906020012 64 308 0.0 0.0 0.00 0.00 0.00 89 1009.9
20260906015805 64 308 0.0 0.0 0.00 0.00 0.00 89 1009.8
20260906015702 64 308 0.0 0.0 0.00 0.00 0.00 89 1009.8
20260906015602 64 308 0.0 0.0 0.00 0.00 0.00 89 1009.8
20260906015544 64 308 0.0 0.0 0.00 0.00 0.00 89 1009.9
20260906015502 64 308 0.0 0.0 0.00 0.00 0.00 89 1009.8
20260906015434 64 308 0.0 0.0 0.00 0.00 0.00 88 1009.8
20260906015401 64 308 0.0 0.0 0.00 0.00 0.00 88 1009.8
20260906015301 64 308 0.0 0.0 0.00 0.00 0.00 88 1009.9
20260906015201 64 308 0.0 0.0 0.00 0.00 0.00 88 1009.9
20260906015130 64 308 0.0 0.0 0.00 0.00 0.00 88 1009.9
20260906015126 65 308 0.0 0.0 0.00 0.00 0.00 88 1009.8
20260906015121 64 308 0.0 0.0 0.00 0.00 0.00 88 1009.9
20260906015029 64 308 0.0 0.0 0.00 0.00 0.00 88 1010.0
20260906015004 64 308 0.0 0.0 0.00 0.00 0.00 88 1009.9
20260906014757 65 308 0.0 0.0 0.00 0.00 0.00 88 1009.9
20260906014655 65 308 0.0 0.0 0.00 0.00 0.00 88 1009.9
20260906014610 65 308 0.0 0.0 0.00 0.00 0.00 88 1009.9
20260906014604 65 308 0.0 0.0 0.00 0.00 0.00 88 1009.8
20260906014529 65 308 0.0 0.0 0.00 0.00 0.00 88 1010.0
20260906014432 65 308 0.0 0.0 0.00 0.00 0.00 88 1009.9
20260906014355 65 308 0.0 0.0 0.00 0.00 0.00 88 1009.9
20260906014254 65 308 0.0 0.0 0.00 0.00 0.00 88 1009.9
20260906014153 65 308 0.0 0.0 0.00 0.00 0.00 87 1009.9
20260906014140 65 308 0.0 0.0 0.00 0.00 0.00 87 1009.8
20260906014136 65 308 0.0 0.0 0.00 0.00 0.00 87 1009.8
20260906014130 65 308 0.0 0.0 0.00 0.00 0.00 87 1009.8
20260906014125 65 308 0.0 0.0 0.00 0.00 0.00 87 1009.9
20260906014030 65 308 0.0 0.0 0.00 0.00 0.00 87 1009.9
20260906014008 65 308 0.0 0.0 0.00 0.00 0.00 87 1009.8
20260906013651 65 308 0.0 0.0 0.00 0.00 0.00 87 1009.8
20260906013552 65 308 0.0 0.0 0.00 0.00 0.00 87 1009.8
20260906013529 65 308 0.0 0.0 0.00 0.00 0.00 87 1009.9
20260906013430 65 308 0.0 0.0 0.00 0.00 0.00 87 1009.8
20260906013405 65 308 0.0 0.0 0.00 0.00 0.00 87 1009.7
20260906013400 65 308 0.0 0.0 0.00 0.00 0.00 87 1009.7
20260906013205 65 308 0.0 0.0 0.00 0.00 0.00 87 1009.7
20260906013159 65 308 0.0 0.0 0.00 0.00 0.00 87 1009.7
20260906013029 65 308 0.0 0.0 0.00 0.00 0.00 87 1009.8
20260906012928 65 308 0.0 0.0 0.00 0.00 0.00 87 1009.7
20260906012849 65 308 0.0 0.0 0.00 0.00 0.00 87 1009.7
20260906012749 65 308 0.0 0.0 0.00 0.00 0.00 87 1009.6
20260906012703 65 308 0.0 0.0 0.00 0.00 0.00 87 1009.6
20260906012657 65 308 0.0 0.0 0.00 0.00 0.00 87 1009.6
20260906012529 65 308 0.0 0.0 0.00 0.00 0.00 87 1009.7
20260906012518 65 308 0.0 0.0 0.00 0.00 0.00 86 1009.6
20260906012514 65 308 0.0 0.0 0.00 0.00 0.00 86 1009.6
20260906012501 65 308 0.0 0.0 0.00 0.00 0.00 86 1009.6
20260906012144 65 308 0.0 0.0 0.00 0.00 0.00 86 1009.5
20260906012043 66 308 0.0 0.0 0.00 0.00 0.00 85 1009.5
20260906012029 66 308 0.0 0.0 0.00 0.00 0.00 85 1009.7
20260906011926 66 308 0.0 0.0 0.00 0.00 0.00 85 1009.6
20260906011857 66 308 0.0 0.0 0.00 0.00 0.00 85 1009.5
20260906011851 66 308 0.0 0.0 0.00 0.00 0.00 85 1009.6
20260906011642 66 308 0.0 0.0 0.00 0.00 0.00 85 1009.5
20260906011541 66 308 0.0 0.0 0.00 0.00 0.00 85 1009.5
20260906011529 66 308 0.0 0.0 0.00 0.00 0.00 85 1009.6
20260906011425 66 308 0.0 0.0 0.00 0.00 0.00 85 1009.5
20260906011341 66 308 0.0 0.0 0.00 0.00 0.00 84 1009.5
20260906011239 66 308 0.0 0.0 0.00 0.00 0.00 84 1009.4
20260906011139 66 308 0.0 0.0 0.00 0.00 0.00 84 1009.5
20260906011039 66 308 0.0 0.0 0.00 0.00 0.00 84 1009.5
20260906011029 66 308 0.0 0.0 0.00 0.00 0.00 84 1009.5
20260906011010 66 308 0.0 0.0 0.00 0.00 0.00 84 1009.4
20260906011006 66 308 0.0 0.0 0.00 0.00 0.00 84 1009.5
20260906010954 66 308 0.0 0.0 0.00 0.00 0.00 84 1009.4
20260906010651 66 308 0.0 0.0 0.00 0.00 0.00 84 1009.4
20260906010645 66 308 0.0 0.0 0.00 0.00 0.00 84 1009.5
20260906010529 66 308 0.0 0.0 0.00 0.00 0.00 84 1009.5
20260906010422 66 308 0.0 0.0 0.00 0.00 0.00 84 1009.4
20260906010347 66 308 0.0 0.0 0.00 0.00 0.00 83 1009.3
20260906010342 66 308 0.0 0.0 0.00 0.00 0.00 83 1009.4
20260906010132 67 308 0.0 0.0 0.00 0.00 0.00 83 1009.3
20260906010031 67 308 0.0 0.0 0.00 0.00 0.00 83 1009.3
20260906010029 67 308 0.0 0.0 0.00 0.00 0.00 83 1009.4
20260906005920 67 308 0.0 0.0 0.00 0.00 0.00 83 1009.3
20260906005829 67 308 0.0 0.0 0.00 0.00 0.00 82 1009.2
20260906005729 67 308 0.0 0.0 0.00 0.00 0.00 82 1009.3
20260906005629 67 308 0.0 0.0 0.00 0.00 0.00 82 1009.3
20260906005529 67 308 0.0 0.0 0.00 0.00 0.00 82 1009.3
20260906005527 67 308 0.0 0.0 0.00 0.00 0.00 82 1009.3
20260906005420 67 308 0.0 0.0 0.00 0.00 0.00 82 1009.2
20260906005326 67 308 0.0 0.0 0.00 0.00 0.00 82 1009.2
20260906005226 67 308 0.0 0.0 0.00 0.00 0.00 82 1009.2
20260906005140 67 308 0.0 0.0 0.00 0.00 0.00 81 1009.1
20260906005134 67 308 0.0 0.0 0.00 0.00 0.00 81 1009.1
20260906005044 67 308 0.0 0.0 0.00 0.00 0.00 81 1009.2
20260906004921 67 308 0.0 0.0 0.00 0.00 0.00 81 1009.1
20260906004901 67 308 0.0 0.0 0.00 0.00 0.00 81 1009.0
20260906004856 67 308 0.0 0.0 0.00 0.00 0.00 81 1009.1
20260906004633 67 308 0.0 0.0 0.00 0.00 0.00 81 1009.1
20260906004530 68 308 0.0 0.0 0.00 0.00 0.00 81 1009.2
20260906004419 67 308 0.0 0.0 0.00 0.00 0.00 81 1009.1
20260906004323 68 308 0.0 0.0 0.00 0.00 0.00 80 1009.1
20260906004223 68 308 0.0 0.0 0.00 0.00 0.00 80 1009.1
20260906004136 68 308 0.0 0.0 0.00 0.00 0.00 80 1009.1
20260906004130 68 308 0.0 0.0 0.00 0.00 0.00 80 1009.1
20260906004029 68 308 0.0 0.0 0.00 0.00 0.00 80 1009.2
20260906003938 68 308 0.0 0.0 0.00 0.00 0.00 80 1009.1
20260906003928 68 308 0.0 0.0 0.00 0.00 0.00 80 1009.1
20260906003718 68 308 0.0 0.0 0.00 0.00 0.00 80 1009.1
20260906003617 68 308 0.0 0.0 0.00 0.00 0.00 80 1009.1
20260906003531 68 308 0.0 0.0 0.00 0.00 0.00 79 1009.0
20260906003529 68 308 0.0 0.0 0.00 0.00 0.00 79 1009.1
20260906003522 68 308 0.0 0.0 0.00 0.00 0.00 79 1009.0
20260906003317 68 308 0.0 0.0 0.00 0.00 0.00 79 1009.0
20260906003217 68 308 0.0 0.0 0.00 0.00 0.00 79 1009.0
20260906003116 69 308 0.0 0.0 0.00 0.00 0.00 79 1009.0
20260906003043 69 308 0.0 0.0 0.00 0.00 0.00 79 1008.9
20260906003029 69 308 0.0 0.0 0.00 0.00 0.00 79 1009.0
20260906002924 69 308 0.0 0.0 0.00 0.00 0.00 78 1008.9
20260906002713 69 308 0.0 0.0 0.00 0.00 0.00 78 1008.9
20260906002628 69 308 0.0 0.0 0.00 0.00 0.00 77 1008.9
20260906002623 69 308 0.0 0.0 0.00 0.00 0.00 78 1008.9
20260906002529 69 308 0.0 0.0 0.00 0.00 0.00 77 1008.9
20260906002413 69 308 0.0 0.0 0.00 0.00 0.00 77 1008.8
20260906002313 69 308 0.0 0.0 0.00 0.00 0.00 77 1008.8
20260906002213 69 308 0.0 0.0 0.00 0.00 0.00 77 1008.8
20260906002113 69 308 0.0 0.0 0.00 0.00 0.00 77 1008.7
20260906002030 69 308 0.0 0.0 0.00 0.00 0.00 77 1008.8
20260906002011 69 308 0.0 0.0 0.00 0.00 0.00 77 1008.8
20260906001912 69 308 0.0 0.0 0.00 0.00 0.00 77 1008.8
20260906001825 69 308 0.0 0.0 0.00 0.00 0.00 76 1008.8
20260906001820 69 308 0.0 0.0 0.00 0.00 0.00 76 1008.8
20260906001645 70 308 0.0 0.0 0.00 0.00 0.00 76 1008.8
20260906001640 70 308 0.0 0.0 0.00 0.00 0.00 76 1008.8
20260906001635 70 308 0.0 0.0 0.00 0.00 0.00 76 1008.8
20260906001529 70 308 0.0 0.0 0.00 0.00 0.00 76 1008.8
20260906001517 70 308 0.0 0.0 0.00 0.00 0.00 76 1008.8
20260906001310 70 308 0.0 0.0 0.00 0.00 0.00 75 1008.8
20260906001209 70 308 0.0 0.0 0.00 0.00 0.00 75 1008.8
20260906001109 70 308 0.0 0.0 0.00 0.00 0.00 75 1008.8
20260906001029 70 308 0.0 0.0 0.00 0.00 0.00 75 1008.7
20260906001009 70 308 0.0 0.0 0.00 0.00 0.00 75 1008.8
20260906000908 70 308 0.0 0.0 0.00 0.00 0.00 74 1008.7
20260906000808 70 308 0.0 0.0 0.00 0.00 0.00 74 1008.7
20260906000722 71 308 0.0 0.0 0.00 0.00 0.00 74 1008.7
20260906000716 71 308 0.0 0.0 0.00 0.00 0.00 74 1008.6
20260906000529 71 308 0.0 0.0 0.00 0.00 0.00 74 1008.6
20260906000506 71 308 0.0 0.0 0.00 0.00 0.00 74 1008.6
20260906000405 71 308 0.0 0.0 0.00 0.00 0.00 74 1008.6
20260906000305 71 308 0.0 0.0 0.00 0.00 0.00 74 1008.5
20260906000205 71 308 0.0 0.0 0.00 0.00 0.00 73 1008.6
20260906000104 71 308 0.0 0.0 0.00 0.00 0.00 72 1008.6
20260906000044 71 308 0.0 0.0 0.00 0.00 0.00 71 1008.6
20260906000004 71 308 0.0 0.0 0.00 0.00 0.00 71 1008.6
20260905235910 71 308 0.0 0.0 0.00 0.00 0.00 71 1008.6
20260905235902 71 308 0.0 0.0 0.00 0.00 0.00 71 1008.6
20260905235802 71 308 0.0 0.0 0.00 0.00 0.00 71 1008.6
20260905235704 71 308 0.0 0.0 0.00 0.00 0.00 71 1008.6
20260905235616 72 308 0.0 0.0 0.00 0.00 0.00 70 1008.6
20260905235612 71 308 0.0 0.0 0.00 0.00 0.00 71 1008.6
20260905235529 72 308 0.0 0.0 0.00 0.00 0.00 70 1008.6
20260905235417 72 308 0.0 0.0 0.00 0.00 0.00 70 1008.6
20260905235412 72 308 0.0 0.0 0.00 0.00 0.00 70 1008.6
20260905235403 72 308 0.0 0.0 0.00 0.00 0.00 70 1008.6
20260905235249 72 308 0.0 0.0 0.00 0.00 0.00 69 1008.5
20260905235136 72 308 0.0 0.0 0.00 0.00 0.00 69 1008.5
20260905235029 72 308 0.0 0.0 0.00 0.00 0.00 68 1008.5
20260905235023 72 308 0.0 0.0 0.00 0.00 0.00 68 1008.5
20260905234908 72 308 0.0 0.0 0.00 0.00 0.00 68 1008.5
20260905234859 73 308 0.0 0.0 0.00 0.00 0.00 68 1008.5
20260905234638 73 308 0.0 0.0 0.00 0.00 0.00 67 1008.4
20260905234632 73 308 0.0 0.0 0.00 0.00 0.00 68 1008.5
20260905234623 73 308 0.0 0.0 0.00 0.00 0.00 67 1008.5
20260905234529 73 308 0.0 0.0 0.00 0.00 0.00 68 1008.5
20260905234221 73 308 0.0 0.0 0.00 0.00 0.00 67 1008.4
20260905234108 73 308 0.0 0.0 0.00 0.00 0.00 67 1008.4
20260905234030 73 308 0.0 0.0 0.00 0.00 0.00 68 1008.3
20260905233925 74 308 0.0 0.0 0.00 0.00 0.00 68 1008.3
20260905233920 74 308 0.0 0.0 0.00 0.00 0.00 68 1008.4
20260905233807 74 308 0.0 0.0 0.00 0.00 0.00 67 1008.4
20260905233557 74 308 0.0 0.0 0.00 0.00 0.00 65 1008.3
20260905233529 74 308 0.0 0.0 0.00 0.00 0.00 64 1008.3
20260905233457 74 308 0.0 0.0 0.00 0.00 0.00 64 1008.3
20260905233406 74 308 0.0 0.0 0.00 0.00 0.00 63 1008.3
20260905233356 74 308 0.0 0.0 0.00 0.00 0.00 63 1008.3
20260905233256 74 308 0.0 0.0 0.00 0.00 0.00 62 1008.3
20260905233155 74 308 0.0 0.0 0.00 0.00 0.00 62 1008.2
20260905233055 74 308 0.0 0.0 0.00 0.00 0.00 62 1008.2
20260905233029 74 308 0.0 0.0 0.00 0.00 0.00 61 1008.2
20260905232955 74 308 0.0 0.0 0.00 0.00 0.00 61 1008.2
20260905232905 74 308 0.0 0.0 0.00 0.00 0.00 61 1008.2
20260905232853 74 308 0.0 0.0 0.00 0.00 0.00 61 1008.2
20260905232753 74 308 0.0 0.0 0.00 0.00 0.00 61 1008.2
20260905232714 75 308 0.0 0.0 0.00 0.00 0.00 61 1008.2
20260905232652 75 308 0.0 0.0 0.00 0.00 0.00 61 1008.2
20260905232620 75 308 0.0 0.0 0.00 0.00 0.00 61 1008.2
20260905232615 75 308 0.0 0.0 0.00 0.00 0.00 60 1008.3
20260905232606 75 308 0.0 0.0 0.00 0.00 0.00 61 1008.2
20260905232529 75 308 0.0 0.0 0.00 0.00 0.00 61 1008.2
20260905232306 75 308 0.0 0.0 0.00 0.00 0.00 61 1008.2
20260905232259 75 308 0.0 0.0 0.00 0.00 0.00 61 1008.2
20260905232123 75 308 0.0 0.0 0.00 0.00 0.00 60 1008.1
20260905232050 75 308 0.0 0.0 0.00 0.00 0.00 60 1008.2
20260905232029 75 308 0.0 0.0 0.00 0.00 0.00 60 1008.1
20260905232012 75 308 0.0 0.0 0.00 0.00 0.00 60 1008.1
20260905231849 75 308 0.0 0.0 0.00 0.00 0.00 60 1008.1
20260905231749 75 308 0.0 0.0 0.00 0.00 0.00 60 1008.1
20260905231648 76 308 0.0 0.0 0.00 0.00 0.00 60 1008.2
20260905231548 76 308 0.0 0.0 0.00 0.00 0.00 60 1008.2
20260905231529 76 308 0.0 0.0 0.00 0.00 0.00 60 1008.2
20260905231448 76 308 0.0 0.0 0.00 0.00 0.00 60 1008.3
20260905231402 76 308 0.0 0.0 0.00 0.00 0.00 61 1008.3
20260905231347 76 308 0.0 0.0 0.00 0.00 0.00 61 1008.3
20260905231247 76 308 0.0 0.0 0.00 0.00 0.00 60 1008.3
20260905231147 76 308 0.0 0.0 0.00 0.00 0.00 60 1008.3
20260905231045 76 308 0.0 0.0 0.00 0.00 0.00 60 1008.3
20260905231029 76 308 0.0 0.0 0.00 0.00 0.00 60 1008.2
20260905230959 76 308 0.0 0.0 0.00 0.00 0.00 60 1008.3
20260905230950 76 308 0.0 0.0 0.00 0.00 0.00 60 1008.3
20260905230744 76 308 0.0 0.0 0.00 0.00 0.00 60 1008.3
20260905230644 77 308 0.0 0.0 0.00 0.00 0.00 59 1008.3
20260905230543 77 308 0.0 0.0 0.00 0.00 0.00 59 1008.3
20260905230529 77 308 0.0 0.0 0.00 0.00 0.00 59 1008.1
20260905230443 77 308 0.0 0.0 0.00 0.00 0.00 59 1008.2
20260905230340 77 308 0.0 0.0 0.00 0.00 0.00 58 1008.2
20260905230241 77 308 0.0 0.0 0.00 0.00 0.00 58 1008.2
20260905230154 77 308 0.0 0.0 0.00 0.00 0.00 57 1008.2
20260905230150 77 308 0.0 0.0 0.00 0.00 0.00 57 1008.2
20260905230029 77 308 0.0 0.0 0.00 0.00 0.00 57 1008.1
20260905225940 77 308 0.0 0.0 0.00 0.00 0.00 58 1008.2
20260905225857 77 312 0.0 0.0 0.00 0.00 0.00 58 1008.2
20260905225840 78 312 0.0 0.0 0.00 0.00 0.00 58 1008.2
20260905225813 78 312 0.0 0.0 0.00 0.00 0.00 56 1008.1
20260905225700 78 312 0.0 0.0 0.00 0.00 0.00 57 1008.1
20260905225656 78 312 0.0 0.0 0.00 0.00 0.00 57 1008.2
20260905225530 78 312 0.0 0.0 0.00 0.00 0.00 55 1008.0
20260905225357 78 286 0.0 0.0 0.00 0.00 0.00 57 1008.1
20260905225337 78 286 0.0 0.0 0.00 0.00 0.00 56 1008.1
20260905225237 78 286 0.0 0.0 0.00 0.00 0.00 56 1008.1
20260905225137 78 286 0.0 0.0 0.00 0.00 0.00 56 1008.1
20260905225036 78 286 0.0 0.0 0.00 0.00 0.00 56 1008.2
20260905225029 78 286 0.0 0.0 0.00 0.00 0.00 56 1008.0
20260905224936 78 286 0.0 0.0 0.00 0.00 0.00 56 1008.1
20260905224835 79 286 0.0 0.0 0.00 0.00 0.00 55 1008.1
20260905224734 79 286 0.0 0.0 0.00 0.00 0.00 55 1008.1
20260905224635 79 286 0.0 0.0 0.00 0.00 0.00 55 1008.1
20260905224534 79 286 0.0 0.0 0.00 0.00 0.00 55 1008.2
20260905224529 79 286 0.0 0.0 0.00 0.00 0.00 55 1008.0
20260905224434 79 286 0.0 0.0 0.00 0.00 0.00 55 1008.1
20260905224356 79 286 0.0 0.0 0.00 0.00 0.00 55 1008.1
20260905224332 79 286 0.0 0.0 0.00 0.00 0.00 53 1008.1